Baseball 板


LINE

P:Rakkar NP:6 忘了上一局 LUCKY7 超前啦!!!! 王柏融 130 B 140 B 139 F 139 S 132 K 1OUT 张志豪 131 B 140 B 139 B 140 BB 一垒有人 1OUT P:Rakkar → Albers 2W11L 5.70ERA 1.625WHIP AAA TOR 2.2IP 1H(1HR) 1ER 2BB MLB TOR 郭严文 139 S 141 S 106 二垒滚地 二垒out 一垒safe 一垒有人 2OUT 林智胜 XXX F 138 S 142 K... --



※ 发信站: 批踢踢实业坊(ptt.cc), 来自: 118.160.25.234
※ 文章网址: https://webptt.com/cn.aspx?n=bbs/Baseball/M.1447334354.A.115.html ※ 编辑: theworld666 (118.160.25.234), 11/12/2015 21:19:58
1F:推 y15973: Ya 11/12 21:19
2F:→ phsu02: 干 陈冠宇比黑豹旗投手还烂 11/12 21:19
3F:→ HiHiCano: 还在崩溃陈冠宇啊 你有听过蒋屁屁吗? 11/12 21:19
4F:推 CapriceChang: 逆转 11/12 21:19
5F:推 tsenyao: 大王再尻一发 11/12 21:19
6F:→ liyuoh: 大王再来一发 11/12 21:19
7F:→ just8811: 超级喜欢!!!!!!!!!!!! 11/12 21:19
8F:推 Klan: 上垒啊 11/12 21:19
9F:→ Romeo5566: 蒋智贤 打击E 速度F 守备E 运气F 11/12 21:19
10F:推 isotropic: 大王靠你了 11/12 21:19
11F:→ schmi: 选爪爪队的到底干嘛啦...废到爆..在国内让爪迷自慰就好了 11/12 21:19
12F:推 ACGfun: 抓抓有毒 11/12 21:19
13F:→ just8811: 超级喜欢大王 11/12 21:19
14F:推 cpujerry: 拜托再来一个大局吧 11/12 21:19
15F:推 lovedream927: hhhhhhhhhh 11/12 21:19
16F:推 tamsky: 蒋屁屁可以吃屎吗??拜托,一口就好,大口 11/12 21:19
17F:推 sakuryo: 大王再来一发 11/12 21:19
18F:→ oh123oh: 求求把蒋换掉XXXXXXXXXXXXXXXXXXXXXXXXXXXXXXXXXXXXXXXXX 11/12 21:19
19F:→ ashin0226: 输了 11/12 21:19
20F:→ duncan5208: 米糕打线加油 发挥一下 11/12 21:19
21F:推 d38654: 大王再来一支! 11/12 21:19
22F:→ peter5214: 靠 这棒次 大师兄又要当首位打者了... 11/12 21:19
23F:推 linyi781227: 大王来一发吧!!! 11/12 21:19
24F:推 steven211037: 没被制裁气还在 11/12 21:19
25F:嘘 commonness: 乾脆 以後三垒有人一率强迫取分 好了 11/12 21:19
26F:→ ncb125: 这场打完可以临时换总教练吗? 11/12 21:19
27F:推 jenchieh5: 这局可以期待一下 离蒋还有八个棒次XD 11/12 21:19
28F:嘘 biblecross: 崩溃~~~~~~~~~~~~~~~~~~ 11/12 21:19
29F:→ chense: R: [讨论] 求明天让蒋3B 火哥LF先发 好吗?? 11/12 21:19
30F:→ hbl420ii: 锅贴解冻好了 11/12 21:19
31F:推 riniu0728: 加油啊啊啊啊啊啊啊啊啊啊啊 11/12 21:19
32F:→ success0409: 两只米糕球员 有机会 11/12 21:19
33F:→ ducatio: 拜托这棒次很好 11/12 21:19
34F:→ phsu02: 干 陈冠宇比黑豹旗投手还烂 11/12 21:19
35F:→ w223357: 熟悉的味道 11/12 21:19
36F:推 gn00499901: 逆转Lucky 7来了,台湾队一局打7分! 11/12 21:19
37F:→ garyoneptt: 大王和超级喜欢一人一支红不让啦 11/12 21:19
38F:→ s90523: 加油打线 11/12 21:19
39F:→ schmi: 硬要在无安打队里找人凑人数... 11/12 21:19
40F:推 a76126: 大王再尻一发 我一定喷爆教练团 11/12 21:19
41F:→ BURSTshock: 我要吃大局啦 11/12 21:19
42F:→ love0120xxx: 大王炸一只 拜托 11/12 21:19
43F:推 seclovpla: 加油!!!!!!! 11/12 21:19
44F:嘘 b2060027830: 陈冠宇 郭泰源 蒋屁屁 11/12 21:19
45F:→ santaclub: 有没有国外可以看的连结阿。...y 11/12 21:20
46F:推 san70168: ===========================中华台北掰掰 11/12 21:20
47F:→ zaknafein: 米糕打线 2/3 可以期待 11/12 21:20
48F:→ IRPT001: 荷要call了 11/12 21:20
49F:→ mike780503: 全:有你真好 11/12 21:20
50F:→ hank61910: 大王再来吧 11/12 21:20
51F:→ vacamin: 大王如果H你蒋会更黑 11/12 21:20
52F:推 usoppp: 蒋收钱? 11/12 21:20
53F:→ just8811: ↗↗↗↗↗↗↗↗↗↗↗↗↗↗↗↗↗↗↗↗↗↗↗↗↗ 11/12 21:20
※ 编辑: theworld666 (118.160.25.234), 11/12/2015 21:21:45
54F:→ cover543: 我秀惊险下庄 後面有个黑到发光的 11/12 21:20
55F:→ phsu02: 干 陈冠宇比黑豹旗投手还烂 11/12 21:20
56F:推 shao729: 想到大王原本有满垒机会可以的说.......... 11/12 21:20
57F:推 kouhei: 大王加油!!!!!!! 11/12 21:20
58F:推 trylin: 912三上三下 大师兄又要打阳春 11/12 21:20
59F:推 brainerd: 已经十几个打数了 教练还看不出屁屁状况有多差吗 11/12 21:20
60F:推 k102077: 拜托後天米糕全部排一起 11/12 21:20
61F:推 wbesjdje: Lucky7 11/12 21:20
62F:→ maxian30201: 拜托 再一只 11/12 21:20
63F:→ blue1204: 打国际赛 旅外全黑掉XDDDD 11/12 21:20
64F:→ cover543: 板凳上有yoh 全垒打王 能打能守的轰炸机 当然选择不换啊 11/12 21:20
65F:推 ivan609: 加油啊!!!!!!!!!!!!! 两分 OK的!! 11/12 21:20
66F:→ hank61910: 大王道歉吧 11/12 21:20
67F:→ sunluna: 逆转胜!! 11/12 21:20
68F:推 cpcpao: 都变化球 11/12 21:20
69F:嘘 ofpurity: 引退名单:陈冠宇 蒋屁股 11/12 21:20
70F:推 eric0925a: 大王尻一发 让你蒋黑死 11/12 21:20
71F:推 vincentliu: 反攻 11/12 21:20
72F:嘘 akumakei: 大王??????????????????中职水准而已 11/12 21:20
73F:推 diditomtom: 大王再ㄧ支啦 11/12 21:20
74F:嘘 ycaa: 5:7 Fianl 11/12 21:20
75F:推 aaaaaa12317: 干林老师 11/12 21:20
76F:→ WenliYang: HR!!!!!!!!!!!!! 11/12 21:20
77F:推 loverxa: 拜托炸一只冲冲霉气 11/12 21:20
78F:推 brothers5023: 志豪帮爪道歉一下 蒋就好好休息 11/12 21:20
79F:推 eno03: 上垒 一轰 再追两分 11/12 21:20
80F:→ pigpig861: 继吕震儒之後 香肠我也不酸了 11/12 21:20
81F:→ william7713: 感觉许基宏会比蒋智贤有期待 11/12 21:20
82F:推 MirageAngel: 3振KKKKKKKKKKKKKKKKKK爆CND! 11/12 21:20
83F:推 sean0126: LM打线不会放弃的! 11/12 21:20
84F:→ Romeo5566: 这个投手 几乎都坏球 11/12 21:20
85F:推 sandwichchen: 反攻反攻!!! 11/12 21:20
86F:推 anleyou: 在一发!!!!!!!!!!!!!!!!!!!!!!!!!!!!!!! 11/12 21:20
87F:推 HumanBenzene: 140应该满合中华队味口 11/12 21:20
88F:推 sunnmm: 再来个大局吧! 11/12 21:20
89F:推 team0801: 加油 11/12 21:20
90F:→ vans726: 主坦上位 11/12 21:20
91F:推 yyhhzz: 大王再来一发吧 11/12 21:20
92F:推 gameloser: 真 第四棒 11/12 21:20
93F:推 q052840616: 荷兰拿到同花大顺啦 11/12 21:20
94F:推 addict615: ↗↗↗↗↗↗↗↗↗↗↗↗↗↗↗↗↗↗↗↗↗↗↗↗↗ 11/12 21:20
95F:推 agjay: 加油啊!!!! 11/12 21:20
96F:推 justting: 加油,反攻开始 11/12 21:20
97F:推 BlueMoonss: LM整队来可能都比现在好 11/12 21:20
98F:推 BDACK: 坏球率满高的 刚刚一直挥= = 11/12 21:20
99F:推 yniori: 蒋屁站着被三振都比较有贡献 11/12 21:20
100F:→ straight0711: 终於知道eda为什麽不选了 11/12 21:20
101F:→ ncncaska: 不要这样,志豪跟飞刀还不赖的 11/12 21:20
102F:推 F93935: 拜托别看到e全跟蒋屁屁了 毫无希望 11/12 21:20
103F:推 nht: 大王加油!!!!!!!! 11/12 21:20
104F:→ kara21: 再一只啦 干 11/12 21:20
105F:嘘 xversaille: R: [讨论] 求明天让蒋3B 火哥LF先发 好吗?? 11/12 21:20
106F:推 AceCash: 喷吧喷把~~~~ 11/12 21:20
107F:推 wayne971: \逆转/\逆转/\逆转/\逆转/\逆转/ 11/12 21:20
108F:→ ofpurity: 陈冠宇比 1a投手还不如 烂死了 11/12 21:20
109F:推 blackspace: 蒋智贤.......................怎麽会让他来打 11/12 21:20
110F:推 bluesophia: 大王加油 11/12 21:20
111F:推 deathnight41: 轰轰轰 11/12 21:21
112F:→ amethystboy: 界外 好险 11/12 21:21
113F:→ riniu0728: 加油 11/12 21:21
114F:嘘 HiHiCano: 还在崩溃陈冠宇啊 你有听过蒋屁屁吗? 11/12 21:21
115F:推 Cervelo1995: 我现在出发代打来的及吗 11/12 21:21
116F:→ agjay: ↗↗↗↗↗↗↗↗↗↗↗↗↗↗↗↗↗↗↗↗↗↗↗ 11/12 21:21
117F:推 cucu1126: 这只刚刚就投不太进去还一直去打...... 11/12 21:21
118F:→ headcase: 大王再尻一发吧 11/12 21:21
119F:推 jeyang: 大王!!!! 11/12 21:21
120F:→ seclovpla: 加油!!!!!! 11/12 21:21
121F:→ apple7146: ↗↗↗↗↗↗↗↗↗↗↗↗↗↗↗↗↗↗↗↗↗↗↗↗↗ 11/12 21:21
122F:推 xsexyx: 拜托尻出去! 11/12 21:21
123F:→ just8811: ↗↗↗↗↗↗↗↗↗↗↗↗↗↗↗↗↗↗↗↗↗↗↗↗↗ 11/12 21:21
124F:→ MirageAngel: ↗↗↗↗↗↗↗↗↗↗↗↗↗↗↗↗↗↗↗↗↗↗↗↗! 11/12 21:21
125F:→ schmi: 选爪爪队的到底干嘛啦...废到爆..在国内让爪迷自慰就好了 11/12 21:21
126F:推 shamangel: 追分吧!!!!!!!!!!!!!!!!!!!!!!!!!!!!!!!!!!!!!!! 11/12 21:21
127F:推 nunu1102: 大王~大王 11/12 21:21
128F:嘘 oh123oh: 超烂的啦 蒋XXXXXXXXXXXXXXXXXXXXXXXXXXXXXXXXXXXXXXXXXX 11/12 21:21
129F:推 MrQT: ==================加拿大有本事 就不要靠蒋好吗=========== 11/12 21:21
130F:推 ghostl40809: 加油啊各位 11/12 21:21
131F:→ WenliYang: HR!!!!!!!!!!!!! 11/12 21:21
132F:推 blackhearted: 真的坏球一堆,刚蒋屁那球也烂死了 11/12 21:21
133F:推 Tyrael: 有一个好消息 还要再打八个人才会轮到蒋智贤 11/12 21:21
134F:→ deathnight41: K 11/12 21:21
135F:推 powderzhon: +油啊~~~ 11/12 21:21
136F:→ forfan: 还好义大没选,不然球迷跑光光了 11/12 21:21
137F:→ straight0711: 第一次打就完全挥不到了 11/12 21:21
138F:推 iverlung: 拜托在尻一只 11/12 21:21
139F:推 LauyaD: k 11/12 21:21
140F:推 DarkKnight: K 11/12 21:21
141F:推 yanki826: KKK 11/12 21:21
142F:→ HiHiCano: KKKKKKKKKKK 11/12 21:21
143F:推 coffeeblack: 大王加油 11/12 21:21
144F:→ san70168: =============穷到只剩全垒打了 我难过.......... 11/12 21:21
145F:→ yyhhzz: 这投手真威猛 11/12 21:21
146F:推 stoo5514: K 11/12 21:21
147F:→ freedom168: 大家冷静点 11/12 21:21
※ 编辑: theworld666 (118.160.25.234), 11/12/2015 21:23:16
148F:推 v2ssili: 这个变速球好威喔!! 11/12 21:21
149F:推 dodotank: 大家都心急了 11/12 21:21
150F:推 sniperlin: 这种投手就中华队最不会打得 球路诡异的变化球系投手 11/12 21:21
151F:→ ivan609: 稳住啊 气势要拉回来!! 11/12 21:21
152F:→ psvita: 想拚大只的 11/12 21:21
153F:→ WenliYang: HR!!!!!!!!!!!!! 11/12 21:21
154F:推 ccfred: 这投手真的不好打 11/12 21:21
155F:→ joenot: 看完蒋 我觉得一拳白了 11/12 21:21
156F:推 tvb: 变速球真猛 11/12 21:21
157F:→ agjay: ↗↗↗↗↗↗↗↗↗↗↗↗↗↗↗↗↗↗↗↗↗↗↗ 11/12 21:21
158F:推 godmanntut: 好威的变速 11/12 21:21
159F:推 notea: 气都被屁蒋灭了 11/12 21:21
160F:推 dl92114: 投手有够舒服 11/12 21:22
161F:推 Greatgenius: 这是利多消息 还有八人 11/12 21:22
162F:→ nunu1102: 可惜~大王!! 11/12 21:22
163F:推 hank61910: 投手好猛 11/12 21:22
164F:→ DarkKnight: 人家不是1A投手而已..... 11/12 21:22
165F:推 s83106: 嗯… 11/12 21:22
166F:推 knml: 唉…没气了…被蒋屁烧光 11/12 21:22
167F:推 egg43: 派全智贤来打还比较好.......至少碰不到球才死一个 11/12 21:22
168F:推 jimmy885: 他这颗变速真的极品 11/12 21:22
169F:推 hbl420ii: 1A>>>>>>>>>>>>>>>中华队 11/12 21:22
170F:推 Crazyfire: 气 都被压下去了 11/12 21:22
171F:推 jay1943webbe: 这只很难打啊.....呜呜 11/12 21:22
172F:推 Augustus7689: 这投手舒服 11/12 21:22
173F:推 littlethree: 这投手有很强吗? 11/12 21:22
174F:推 gn00152097: 好吧 这投手真的难打 11/12 21:22
175F:推 lon0623: 为什麽会让张志豪先发阿? 11/12 21:22
176F:→ seclovpla: 有的一日球迷是怎样 11/12 21:22
177F:推 snap007: 後面越来越难打了 11/12 21:22
178F:推 malasea: 这只变速球幅度蛮大的 11/12 21:22
179F:推 SPEEDPOP: 完全被变化球骗假的 11/12 21:22
180F:推 isotropic: 这球投得太好了 11/12 21:22
181F:推 qqstory: 这投手变化球不错 2K 1DP 11/12 21:22
182F:推 LewisRong: 这投手真猛 11/12 21:22
183F:推 IRPT001: 好啦 结果一样 11/12 21:22
184F:推 gilonglee: 变速球威力真好 11/12 21:22
185F:→ xsexyx: 蒋比你全更让人生气 11/12 21:22
186F:→ schmi: 开心的是 明年又可以看到废物蒋在爪爪队~!! 11/12 21:22
187F:→ HiHiCano: 今天应该就这样了 拚一点能吃锅贴 11/12 21:22
188F:推 maxian30201: 这投手不好打啊 11/12 21:22
189F:推 ya7814: 棒子离球超远QQ 11/12 21:22
190F:推 lovebuddy: 投手感觉很威 加油啊 11/12 21:22
191F:推 nepenthes7: 这真的是1a投手吗 囧 11/12 21:22
192F:推 Puye: 这球投得不错 11/12 21:22
193F:推 henryeech: 志豪来帮我爪要点面子吧 11/12 21:22
194F:→ westlml: 完全被这个投手压制住了~上来两K一DP 11/12 21:22
195F:推 ncb125: 在一只三分炮就超前了 先挤垒 11/12 21:22
196F:推 Raymond0710: 投手真强 11/12 21:22
197F:推 d90493: 1A电报中华队 11/12 21:22
198F:嘘 shulado: 这投手的坏球这麽有魔力? 11/12 21:22
199F:推 Saza: 2K 1 DP 这头真猛 11/12 21:22
200F:→ WenliYang: 满垒无人出局拿零分 气势整个逆转 11/12 21:22
201F:推 yenchihh: 变速球真漂亮 11/12 21:22
202F:推 qsxwdc: 咦 11/12 21:22
203F:→ deathnight41: 好好选球 11/12 21:22
204F:推 steany: 有够烂的 11/12 21:22
205F:→ yiersan: 不换YOH???? 11/12 21:22
206F:推 Amilous: 这投手目前只有蒋打出去... 11/12 21:22
207F:推 zergtide: 这颗变速有强 11/12 21:22
208F:→ s83106: 看来这投手真的很难打… 11/12 21:22
209F:推 chiamin116: 大王左脸颊痘疤好明显 11/12 21:22
210F:推 F93935: 蒋到底有什麽实绩真有爱一直打国际赛 11/12 21:22
211F:推 eaglelee: 这个加拿大投手真让人舒服 11/12 21:22
212F:推 chinho14: 变速,幅度很大 11/12 21:22
213F:推 wayne971: 选死他啊 11/12 21:22
214F:推 terrylys: 这投手好舒服喔!! 11/12 21:22
215F:推 Mondesi2006: 不好打 11/12 21:22
216F:推 pigpig861: 伟哉我蒋 士气全无 11/12 21:22
217F:推 mico409: =============选 球 好 吗============== 11/12 21:22
218F:推 CCAP: 好好选球 11/12 21:22
219F:→ yanki826: 该还志豪一只安打 11/12 21:22
220F:→ isotropic: 选球 11/12 21:22
221F:推 q152134: 大家一直挥这颗变速 11/12 21:22
222F:→ ncncaska: 阳赛前脚不舒服 11/12 21:22
223F:推 trylin: 打支安打 让师兄上来双响炮好吗 ? 11/12 21:22
224F:推 jamison763: 打击不是问题 投手真的不行 11/12 21:22
225F:推 HeroFun: 球路都往下吊 11/12 21:22
226F:→ yyhhzz: 别人换投止血,我们换投放火 11/12 21:22
227F:→ lon0623: 阳岱钢是NPB好手耶 11/12 21:22
228F:推 scatology: 现在可好了 攻势的气势都断在蒋那个打席 11/12 21:22
229F:推 eno03: 球全部偏低 11/12 21:22
230F:推 riniu0728: 加油!!!! 11/12 21:22
231F:→ straight0711: 坏球猛挥 好球不挥 11/12 21:22
232F:→ q052840616: 猿文尻一发吧 今天只能期待lamigo全垒打海了 11/12 21:22
233F:推 lovedesigh: 输了 11/12 21:22
234F:推 kzzoz80: 有辨法得分时不珍惜 等人家换投手 11/12 21:22
235F:→ Roy3567: 加拿大投手令人舒服 11/12 21:22
236F:推 stockking: 张先上垒吧~~等等超级喜欢轰一支! 11/12 21:22
237F:→ d90493: 中华队有机会赢的 关键都烙赛 11/12 21:22
238F:→ Tyrael: 刚刚打爆2A 结果被高阶1A收掉... 11/12 21:22
239F:→ kara21: 袁博士不要称赞对手啦 11/12 21:22
240F:→ freedom168: 蒋不要再来了 拜托 11/12 21:22
241F:→ deathnight41: 选球 11/12 21:22
242F:→ CCAP: 不错 11/12 21:22
243F:推 koyu: 这只变化球好猛 11/12 21:22
244F:→ hank61910: 张志豪代表兄弟白一下吧 11/12 21:22
245F:推 gameloser: 赶着下班 11/12 21:23
246F:→ hergan: 亚运不是实绩 ? 11/12 21:23
247F:→ zergtide: 0s3b 11/12 21:23
248F:→ chinho14: 志豪,选球 11/12 21:23
249F:→ Augustus7689: 加捕手尾劲不错 11/12 21:23
250F:→ william7713: 这三场的得点圈打击率是不是超级杯具...? 11/12 21:23
251F:→ WenliYang: HR!!!!!!!!!!!!! 11/12 21:23
252F:推 jeyang: 选球!! 11/12 21:23
253F:→ deathnight41: BBBB 11/12 21:23
254F:→ Puye: 球都很低 11/12 21:23
255F:推 love0120xxx: 超级喜欢准备炸裂 11/12 21:23
256F:→ ivan609: 选球选球!!!!! 11/12 21:23
257F:→ CCAP: BBBBBBBBBBBBBBBBBBBBBB 11/12 21:23
258F:推 panjiongkai: BBBBBBBB 11/12 21:23
259F:推 doraemon0317: 明明就坏球率很高阿……蒋你到底…… 11/12 21:23
260F:推 sheep2009: BBB 11/12 21:23
261F:推 phsu02: 干 陈冠宇比黑豹旗投手还烂 11/12 21:23
262F:→ q152134: BBBBBBBBBB 11/12 21:23
263F:推 linyi781227: 选球!!!!!水!!! 11/12 21:23
264F:→ trylin: BB 11/12 21:23
265F:→ mico409: BBBBBBBBBBBBBBBBBBBBB 11/12 21:23
266F:→ stockking: 任务达成 11/12 21:23
267F:→ activ: 张志豪替蒋屁洗白一丁点 11/12 21:23
268F:推 xuptjo: BBBBBBBBBBBBBBBBBBBBBB 11/12 21:23
269F:推 bbbbbb444444: BBBBBBBBBBBBBBB 11/12 21:23
270F:推 pig721: 帅 11/12 21:23
271F:推 lalala888: 保送! 11/12 21:23
272F:推 osakakobe: bbbb 11/12 21:23
273F:推 terfd: 水 11/12 21:23
274F:→ asonge0000: 超级喜欢该轰了!!!!!!!!!!!!!!! 11/12 21:23
275F:推 loveinmars: 好!!! 11/12 21:23
276F:推 grizzly: 志豪猛! 11/12 21:23
277F:推 a51062004: 拜托 反攻阿 11/12 21:23
278F:→ s83106: 蒋亚运打不错啊 11/12 21:23
279F:→ Amphetame: 优质掌心球,有张99的fu 11/12 21:23
280F:推 tetsu2008: BBBBBBB 11/12 21:23
281F:→ nunu1102: 水啦~~~~ 11/12 21:23
282F:推 sdg235: bbbbbbbbbbbbbbbbbbbbbbbbbbbb 11/12 21:23
283F:推 gamertwo: 选球眼准! 11/12 21:23
284F:→ star0275: 选的好!! 11/12 21:23
285F:推 fish19831012: 爪爪终於有贡献 只剩下张志豪 11/12 21:23
※ 编辑: theworld666 (118.160.25.234), 11/12/2015 21:24:55
286F:→ hank61910: 志豪不错 11/12 21:23
287F:推 colorbest: 加油啦!!!!!!!!!!!!!!!!!!!!!!!!!!!!!!!!!!!!!!!!!!!!! 11/12 21:23
288F:推 amethystboy: 很好 选的好 11/12 21:23
289F:→ ivan609: 至豪美卖哦!! 11/12 21:23
290F:推 kerogunpla: 全猿都有打全垒打的能力 11/12 21:23
291F:嘘 henryeech: 志豪为何先发?什麽烂问题 11/12 21:23
292F:推 sony1256: 主审都慢半拍 志豪都要看一下 XD 11/12 21:23
293F:→ seclovpla: 耶耶!!!!!! 11/12 21:23
294F:推 qaz2805: 这选球不是来了 11/12 21:23
295F:→ zergtide: BB 志豪选球很好 11/12 21:23
296F:→ isotropic: 超级喜欢!!! 11/12 21:23
297F:推 caku0101: 不怕神一样的对手,只怕蒋智贤般的队友! 11/12 21:23
298F:推 Obama19: 士气被打沉了 11/12 21:23
299F:推 lichun1228: 超级喜欢 你好久没全垒打了喔 来吧 11/12 21:23
300F:→ wayne971: BBBB 11/12 21:23
301F:→ deathnight41: 今天真的不错 11/12 21:23
302F:推 s90523: 不用跟大家讲啦 已经黑掉的时候说什麽都没有用 11/12 21:23
303F:→ CCAP: 志豪猛 11/12 21:23
304F:推 t13thbc: 加油阿QAQQ 11/12 21:23
305F:推 annie588670: 加油加油 11/12 21:23
306F:推 adonistao: 水啊 11/12 21:23
307F:推 helloklima: 加油加油!!! 11/12 21:23
308F:推 if2: 加拿大人B嘴 11/12 21:23
309F:推 coon182: 志豪>>>>>>>>>PP 11/12 21:23
310F:→ sniperlin: 超级喜欢差不多要反方向了 11/12 21:23
311F:推 nht: 加油!!!! 11/12 21:23
312F:→ pig721: 称职的中职阳岱钢 11/12 21:23
313F:推 dirk00563: 志豪锅炉! 11/12 21:23
314F:推 oxx: 我猿又要............ 11/12 21:23
315F:→ shulado: 第一棒选球赞 11/12 21:23
316F:→ daniel1344: 我爪清流 11/12 21:23
317F:→ Kreen: 水喔~ 11/12 21:23
318F:推 spaniyavic: 挤垒啊~ 11/12 21:23
319F:推 dream1517: BBB 11/12 21:23
320F:推 white1003: 这投手太舒服了 11/12 21:23
321F:推 bunbunbun: 张志豪100分,上垒就对 11/12 21:23
322F:推 e055739: 志豪帅哦 11/12 21:23
323F:推 gigi2001: 这局在没得分就吃锅贴了 11/12 21:23
324F:推 cypoint: 重新开始吧 11/12 21:23
325F:推 amaxman: 超级喜翻靠你惹 11/12 21:23
326F:推 windjoe27: 志豪都比蒋屁强多了 11/12 21:23
327F:→ eno03: 坏球率颇高的投手 捧场一直挥 11/12 21:23
328F:→ yyhhzz: 爪爪只能靠志豪了 11/12 21:23
329F:推 crusaders811: 选的不错 11/12 21:23
330F:推 apple7146: 偏低阿 11/12 21:23
331F:推 terry66: 有机会的话 高国辉代打神全 不要不信邪 11/12 21:23
332F:推 loverxa: 你爪良心 11/12 21:23
333F:推 premalfear: 呵呵 有给主审尊重 直接走搞不好就CALL好球 11/12 21:23
334F:推 kouhei: 超级喜欢 全垒打 11/12 21:23
335F:→ Augustus7689: 加拿大教练又要拐气了 11/12 21:23
336F:→ straight0711: 都不要挥搞不好还在打6下 11/12 21:23
337F:→ T60: 追平分上垒了…本日我们得分都是靠___,请低调! 11/12 21:23
338F:嘘 headcase: 人家就状况好啊 不然比先发名单的层级就好 还打什麽比赛 11/12 21:23
339F:推 waterfully: 郭严文来一发 11/12 21:23
340F:推 weiyilan: 志豪竟然长出选球 11/12 21:23
341F:推 w40214: 好好选 今天很多人都不选球的.. 11/12 21:23
342F:推 jenchieh5: 左打岱钢 11/12 21:23
343F:推 knml: 坏球无误 11/12 21:23
344F:推 jack21023: 兄弟只有我豪醒着 11/12 21:23
345F:→ HeroFun: 换投投投投投投投投投 11/12 21:23
346F:→ coffeeblack: 超级喜欢! 11/12 21:23
347F:推 snap007: 左打阳岱钢 11/12 21:23
348F:→ stockking: 超级喜欢!!!!!! 11/12 21:23
349F:→ pigpig861: 为爪爪扳回一点颜面 11/12 21:23
350F:推 ilovewang: 全猿都有打全垒打的实力XD 11/12 21:23
351F:嘘 ji394up: 又再抗议什麽 11/12 21:23
352F:推 pf775101: XD 11/12 21:23
353F:推 lucy07030703: 选的好 11/12 21:23
354F:→ Puye: 上垒就对了 11/12 21:23
355F:嘘 jimgene: 终於又轮回LM打线了 11/12 21:23
356F:→ panjiongkai: 加拿大抗议啥啊 11/12 21:23
357F:推 WINNIENO29: 志豪不错~ 11/12 21:23
358F:推 ultratimes: 马的为什麽要给张志豪先发啊 11/12 21:23
359F:→ lon0623: 其实许基宏状况比蒋好阿 怎麽不选 11/12 21:23
360F:→ trylin: 超级喜欢 大师兄 随便谁炸一发压压惊 11/12 21:23
361F:推 creay222: 上垒啊 挤垒包啊!!!!!!!!!!!!!!!!!!!!!!!!!!!!!!!!!! 11/12 21:23
362F:推 Taidalmc: 谢谢你兄弟 11/12 21:23
363F:推 orgre: 豪>P 11/12 21:23
364F:推 sediments: 志豪>>>>>>>>>>>>>>>>>>>>>>>>>>>>>>>>>>>>>>>>>>>>>屁 11/12 21:23
365F:→ jimmy885: 是太低也太外侧啦 11/12 21:23
366F:→ q052840616: 今天得分只能靠全垒打惹 11/12 21:23
367F:→ IRPT001: 这总仔长的好像mib里的老大 11/12 21:23
368F:→ hank61910: 换了,水哦 11/12 21:23
369F:推 just8811: 选球就对了好吗 11/12 21:23
370F:→ garyoneptt: 老加你又要干嘛 11/12 21:23
371F:推 bbo9527: 我爪还好有张志豪还像话 11/12 21:23
372F:嘘 adbo1108: 根本没进垒 11/12 21:23
373F:推 doig: 这投手明明自己投都会投倒自己,一堆人一直挥 11/12 21:23
374F:推 bire: 加拿大教练珍爱抗议 11/12 21:23
375F:→ chinho14: 加拿大,很爱哭 11/12 21:23
376F:→ osakakobe: 要换了 11/12 21:23
377F:推 ACGfun: 很信邪 11/12 21:24
378F:→ henryeech: 换了机会就来了这投手球不好打 11/12 21:24
379F:→ TSbb: U大师:志豪你~~~~~~~~~ 11/12 21:24
380F:→ phsu02: 唯一正常的兄弟 11/12 21:24
381F:→ kouhei: 左投上了 11/12 21:24
382F:→ kzzoz80: 我讨厌郭严文 11/12 21:24
383F:→ max52001: 爪爪唯一清流 11/12 21:24
384F:→ s90523: 超级喜欢加油~ 11/12 21:24
385F:→ isotropic: 换了 11/12 21:24
386F:→ cpcpao: 左投出现了 11/12 21:24
387F:推 yoyoman001: 水 选球选球 11/12 21:24
388F:→ sdg235: 换左投 11/12 21:24
389F:→ pig721: 换投 加拿大要爆了 11/12 21:24
390F:→ CCAP: 高国辉可以上来了!!!!!!!!!!!!! 11/12 21:24
391F:→ nht: 超级喜欢加油!!!!!!! 11/12 21:24
392F:→ terfd: 你猿阵线来了 11/12 21:24
393F:推 skycloudtw: 谢谢你 志豪~~~~~~~~~~~~~~ 11/12 21:24
394F:→ jeyang: 猿文来吧!!!!! 11/12 21:24
395F:推 chien955401: 换左投了 11/12 21:24
396F:推 aries5420: 换投…危机还是转机? 11/12 21:24
397F:→ aliceleaves: 超级喜欢!!! 11/12 21:24
398F:推 F93935: 超级喜翻郭严文 11/12 21:24
399F:→ terry66: 拜托高国辉代打林益全 11/12 21:24
400F:推 y012478: 准备烧roots啦 11/12 21:24
401F:推 Romeo5566: 放个火 拜托 11/12 21:24
402F:→ ARTORIA: 上一局这样选赢了 11/12 21:24
403F:推 kukuso: 牛棚海 11/12 21:24
404F:→ ivan609: 又换投了 感觉机会来了!! 11/12 21:24
405F:推 jess730612: 枫叶总教练真得很尽责有任何不爽都会反映 11/12 21:24
406F:推 Mondesi2006: 我文 11/12 21:24
407F:推 qaz12wsx45: 基就受伤阿 11/12 21:24
408F:推 jackie0712: 猿文来一支阿!!! 11/12 21:24
409F:推 yisiang92: 志豪这就对了 多选球 现在急不得 11/12 21:24
410F:推 iankevin: 人家就换的果断 我们就要掉分才换 11/12 21:24
411F:→ pplilian: 同个投手一个保送一个双杀 11/12 21:24
412F:→ loveinmars: 超级喜欢轰死他!!!! 11/12 21:24
413F:推 success0409: 超级喜欢郭严文~~~~~ 11/12 21:24
414F:推 rick770423: 张志豪今天的表现u大师又有意见? 11/12 21:24
415F:推 g7063068: 整条打线 只能期待猴子了 超级喜欢来一发阿!! 11/12 21:24
416F:推 ITN02: 水喔换了 11/12 21:24
417F:推 majanliu: 追平啦 足球 11/12 21:24
418F:推 jucci9734: 郭严文来了,加油!!!!开轰追平吧! 11/12 21:24
419F:推 leo1208: 越换越烂啦 11/12 21:24
420F:→ Mondesi2006: 我文 11/12 21:24
421F:推 wan8088: 可以不要再骂蒋了吗!我要哭了喔!!!! 11/12 21:24
422F:→ bunbunbun: 垒上有鲁蛋了,轰一发吧 11/12 21:24
423F:嘘 book8685: 霸的 一u大师还能推文 11/12 21:24
424F:→ gamertwo: 稳住 风向一定会转回来的! 11/12 21:24
425F:嘘 HiHiCano: 左投好球带更窄 加拿大惨了 11/12 21:24
426F:推 jelly777: 还是要靠大师兄比较稳... 11/12 21:24
427F:→ amethystboy: 来 都来 都可以换上来 11/12 21:24
428F:推 julialin: 超级喜欢郭严文 11/12 21:24
429F:→ Taidalmc: 这总教练怎麽好像有喝酒 11/12 21:24
430F:推 smile456: 四棒海预备 11/12 21:24
431F:推 maxian30201: 我还在赌烂刚刚那局 机X 11/12 21:24
432F:推 Alubasong: 赶快打爆他们 11/12 21:24
433F:→ straight0711: 林志祥直接换蒋都好 11/12 21:24
434F:推 Fukudome: Rakkar小熊高阶1A救援王 11/12 21:24
435F:推 shao729: 蒋令人失望 志豪表现不错 11/12 21:24
436F:嘘 jeff1008: 屁屁贤可以先自尽了 11/12 21:24
437F:→ lichun1228: 有换有机会 这投手球好会钻 11/12 21:24
438F:→ knml: 你爪只有志豪强…蒋屁根本没用 11/12 21:24
439F:推 saint01: 会怕就好 11/12 21:24
440F:→ eno03: 换投时间都不错 反观郭 11/12 21:24
441F:推 k268185: ppppppppppppppppp booooooooooooo 11/12 21:24
442F:推 tviii: 打到高志纲那棒 换国辉 11/12 21:24
443F:推 xo1100: 被发现投不进去赶快换 11/12 21:24
444F:→ stockking: 妈阿~~人家教练换投的时机~~总是很对味阿~ 11/12 21:24
445F:推 jay1943webbe: 郭严文来个跪地尻 拜托 11/12 21:24
446F:→ kouhei: 使用美女诱惑枫叶国就是 11/12 21:24
447F:推 kairiyu: 照这剧本 该出现全垒打了 11/12 21:24
448F:推 superatayal: 阿文轮着轰.... 11/12 21:24
449F:嘘 sm02188612: 蒋不要拿球棒上垒率可能高些 11/12 21:24
450F:→ y012478: 有roots一起来烧喔。让枫叶放火喔 11/12 21:24
451F:推 DeAmorFati: 拜托文文 11/12 21:24
452F:→ Mondesi2006: 郭 11/12 21:24
453F:推 rongs: 不是阳脚拉伤 志豪不错啊 11/12 21:24
454F:嘘 djviva: 谁帮忙递上吴复连的球衣!! 求全垒打!! 11/12 21:24
455F:→ pig721: 把球僮 可恶 11/12 21:24
456F:推 helba: 球僮… 11/12 21:24
457F:→ qwer9290: 超级喜欢郭严文 11/12 21:24
458F:推 nightjar: 柯昱廷!!!!!!!!!!!!!!!!!!!!!!!!!!! 11/12 21:24
459F:推 Lizardon: 吴复连打全垒打 11/12 21:24
460F:推 yanki826: 超级喜欢郭严文... 11/12 21:24
461F:推 deandean: 轮到lamigo打线就有希望!!!!!! 11/12 21:24
462F:→ just8811: 选球一下 我蒋 11/12 21:24
463F:→ banbantone: 球童 11/12 21:24
464F:→ f59952: 对方蛮敢换的 我倒是觉得陈冠宇换太慢很伤 11/12 21:24
465F:→ yyhhzz: 阿文靠你了 11/12 21:24
466F:→ simple721: 准备DP了 11/12 21:24
467F:→ IRPT001: 结果是男球僮聊很爽 11/12 21:24
468F:→ ncb125: 超级~~~~~~~~~~~~~~~~~~~~~~~~~~~~~~~~~~~~~~~~~~~~~ 11/12 21:24
469F:推 cosmosET: 感觉机会来惹+1 11/12 21:24
470F:→ doig: 刚刚就自己投到满垒0出局,三振秀,双杀蒋 11/12 21:24
471F:推 eeggdd: 超级喜欢吴复连 11/12 21:24
472F:→ grizzly: 球僮不理旁边的人XD 11/12 21:24
473F:推 feng6669: 好正 11/12 21:24
474F:→ yaya: ↗↗↗↗↗↗↗↗↗↗↗↗↗↗↗↗↗↗↗↗↗↗↗ 11/12 21:24
475F:推 abc1234586: 兄弟只剩下志豪跟飞刀了 11/12 21:24
476F:推 cuapple: 换投手就先送他一只全垒打吧 11/12 21:24
477F:→ just8811: 真 吴复连 11/12 21:24
478F:推 stevewu929: 这球僮好凶 11/12 21:24
479F:推 terrylys: 超级喜欢吴复连~~再来一次! 11/12 21:24
480F:→ nunu1102: 超级喜欢吴复连!! 11/12 21:24
481F:嘘 SAC430: 球僮~~~~~~~阿斯 11/12 21:24
482F:推 kingandmay: 妹子好正!!!!! 11/12 21:24
483F:→ white1003: 真的要派会选球的上来打国际赛 PP蒋??? 乱挥一通阿 11/12 21:24
484F:推 momofishj: 超级喜欢该换衣服惹 11/12 21:24
485F:推 eric2001vyvy: 猿文今天的额度还没用,该来了!! 11/12 21:24
486F:推 cemin: 拜托选球!!!!!! 11/12 21:24
487F:推 leo2768: P觉球童不想理旁边那个 只有苦笑回应 11/12 21:24
488F:→ Mondesi2006: 直接轰出去@@@@ 11/12 21:24
489F:→ crusaders811: 超级喜欢上一次打的不错 11/12 21:24
490F:推 ccfred: 加拿大车轮战了 11/12 21:24
491F:→ show11326: 加油 11/12 21:24
492F:推 zaknafein: 继续上垒 给大师兄打 四棒就算了 11/12 21:24
493F:→ shulado: 这局大师兄能打就有机会 11/12 21:25
494F:推 gn00152097: 拜托换掉XD 11/12 21:25
495F:推 panda8877: 超级喜欢郭严文 11/12 21:25
496F:→ guitarjong: 废物大王乱乱挥~~还不是要被K~~ 11/12 21:25
497F:→ Augustus7689: 加拿大也梭哈了 11/12 21:25
498F:→ jimmy885: 加拿大没有中美人计 11/12 21:25
499F:推 tetsu2008: ↗↗↗↗↗↗↗↗↗↗↗↗↗↗↗↗↗↗↗↗↗↗↗ 11/12 21:25
500F:推 kensdream: 超级喜欢吴复连 11/12 21:25
501F:推 coldplay0211: 这首是什麽歌????????? 11/12 21:25
502F:→ ivan609: 不管怎麽样 别打滚地就好... 要让大师兄上来啊!!! 11/12 21:25
503F:→ kairiyu: 马牌小姐也在牛棚尽力为国捐躯 11/12 21:25
504F:推 a0630: 安打 全垒打该出现了 11/12 21:25
505F:推 iamshang: 超级喜欢吴复连 11/12 21:25
506F:→ yaya: 无限期支持辣米糕 11/12 21:25
507F:推 love0120xxx: 微笑今天都被np 该还回去了 11/12 21:25
508F:推 LewisRong: 吴总 靠你了 11/12 21:25
509F:推 rover10: 足球扳平啦!!! 11/12 21:25
※ 编辑: theworld666 (118.160.25.234), 11/12/2015 21:25:21
510F:推 nick2142002: 追平轰楼下1000P 11/12 21:25
511F:→ lichun1228: 这打线看到LM上来 就安心多了 11/12 21:25
512F:推 hchs31705: 一脸我要狂挥棒跟一脸我要选球就是不一样 11/12 21:25
513F:推 yp60802: 足球追平 2:2222222222222222222 11/12 21:25
514F:→ a8330028: 为什麽都用别人的音乐 11/12 21:25
515F:推 gn00499901: 轮到郭严文了!!!!!!!! 11/12 21:25
516F:→ shao729: 7:8 Final 11/12 21:25
517F:推 ycsheaven: 以後3B叫基轰来吧!至少挥棒永远让人期待! 11/12 21:25
518F:推 skyoasis: 加队真的很谨慎,很强 11/12 21:25
519F:推 IAmaMouse: 能不能里面穿吴复连,外面穿自己的球衣XD 11/12 21:25
520F:→ WenliYang: HR@!!!!! 11/12 21:25
521F:推 justin510199: 轰轰 11/12 21:25
522F:推 NewPoliceman: 相比之下 我们的总教练毫无存在感 ㄏ 11/12 21:25
523F:推 yehnshin: 球僮好正 11/12 21:25
524F:推 ndg2001: 总A出来打啦XDDDD 11/12 21:25
525F:推 eaglelee: 打到高志纲换代打?那你要叫谁蹲? 11/12 21:25
526F:→ sniperlin: 让子弹飞 11/12 21:25
527F:→ creay222: 上垒啊!!!!!!!!!!!!!! 11/12 21:25
528F:推 yogaicon: 球僮好正~ 11/12 21:25
529F:→ nht: 轰轰轰~~~~~~~~~~~~~~ 11/12 21:25
530F:推 lml99: 叫吴复连上来打好吗 11/12 21:25
531F:→ rabbit83035: 歪国人:抓脸 11/12 21:25
532F:→ leo1208: 极速132很好啦 11/12 21:25
533F:推 adonistao: 做个战术吧 11/12 21:25
534F:嘘 nifocy: 人家说换就换 台湾最喜欢爆了才换 11/12 21:25
535F:推 kevenchia: U大师什麽时候可以闭嘴? 11/12 21:25
536F:推 marka: 歪国人不喜欢太瘦的 11/12 21:25
537F:推 zergtide: 志豪TS状况很差 反而在12强选球眼大开 11/12 21:25
538F:→ F93935: E全只会虐菜洗数据 11/12 21:25
539F:→ ash9911911: 超级喜欢全垒打 先追平在说 11/12 21:25
540F:推 NTPUpigeyes: 15:1 11/12 21:25
541F:推 furret: 今天打全垒打的都不会是战犯 11/12 21:25
542F:推 teddy198909: 义大利好惨 11/12 21:25
543F:推 srobg666: 足球默默地平手了 但大家还是无感 11/12 21:25
544F:推 eizost: 如果高志纲那棒换人还有捕手吗?? 11/12 21:25
545F:推 jehow: 这支很强 3A等级 11/12 21:25
546F:推 cjeff: 荷兰15:1................ 11/12 21:25
547F:推 chenyp: 这时候还分哪队有事吗... 11/12 21:25
548F:→ jackie0712: 超级喜欢吴复连!!! 11/12 21:25
549F:推 kew0487: 我要拿1000p 11/12 21:25
550F:→ stockking: 换球衣吧!!! 11/12 21:25
551F:推 kobesniper: 那球僮比跳鸟舞的拉拉队们正欸 11/12 21:25
552F:→ fireken: 上吧吴复连!!!!!!!!! 11/12 21:25
553F:推 hoseumou: 足球追平了 换你们棒球了 11/12 21:25
554F:推 Befine: 今天全用全垒打得分好了!追平吧! 11/12 21:25
555F:推 chun47: 加拿大正妹 11/12 21:25
556F:推 lalala888: 先选球再来两分炮~~~~~ 11/12 21:25
557F:推 hank61910: 135左投 11/12 21:25
558F:推 iverlung: 只能靠LM了 在尻一只吧 猿文 11/12 21:25
559F:→ IRPT001: 啦啦队比歪国大嫂团不正 11/12 21:25
560F:→ yaya: ^_______^ 11/12 21:25
561F:→ yyhhzz: 阿文加油!!!!!!! 11/12 21:25
562F:推 smilesuki: 追平楼下我全部P币 11/12 21:25
563F:推 ITN02: 义大利被屠了 11/12 21:25
564F:推 boris0114: 还有一个捕手啊 11/12 21:25
565F:推 pplilian: 超级喜欢吴大头! 11/12 21:25
566F:推 tmbg1228: 轰炸机上去打也不会比蒋烂 11/12 21:25
567F:→ sbreezer: 15比1 打小孩喔 11/12 21:25
568F:嘘 HiHiCano: 这应该是一人左 11/12 21:25
569F:推 ned90245: 蔡明里可不可以闭嘴啊,每次大局只要他一开口马上没攻势 11/12 21:25
570F:→ pig721: 明天没比赛 才会这样调度吧 11/12 21:25
571F:→ kouhei: 超级喜欢!!!!!!!!!!!!!!!!!!!!!!!! 11/12 21:26
※ 编辑: theworld666 (118.160.25.234), 11/12/2015 21:27:28
572F:推 OalexO: 是翻译再跟球僮妹聊天吗 11/12 21:26
573F:→ a0630: 音乐不好听 11/12 21:26
574F:推 ShockG: 对面换投都换得很快啊 11/12 21:26
575F:→ LewisRong: 对方换得好果决 11/12 21:26
576F:推 hiro1221: 啦啦队输了... 11/12 21:26
577F:推 ctsk0302: 张进德? 11/12 21:26
578F:推 panjiongkai: 张晋德也是捕手 11/12 21:26
579F:推 paris0826: 只能靠LM 11/12 21:26
580F:推 Romeo5566: 这个 控球很烂 11/12 21:26
581F:→ ycsheaven: 反超吧!!! 11/12 21:26
582F:→ Befine: 今天全用全垒打得分好了!追平吧! 11/12 21:26
583F:→ Mondesi2006: 直接轰出去吧 !!!!!!!!!!!!!!!!!!!!!!!!!!!!!!! 11/12 21:26
584F:→ kevenchia: 足球还能晋级吗 不是前面都输@@????? 11/12 21:26
585F:→ jimmy885: 还有张进德吧,好歹也是旅外 11/12 21:26
586F:→ jehow: 义大利太早来 倦了 想家了吧 11/12 21:26
587F:推 bunbunbun: 郭严文不怕左投的!!!!! 11/12 21:26
588F:→ lml99: 来人阿 上吴复连 11/12 21:26
589F:推 freedom168: 靠你了啊文 11/12 21:26
590F:推 HumanBenzene: OH..... 11/12 21:26
591F:推 bluesophia: 猿文加油,选球啊 11/12 21:26
592F:推 OsirisWar: 微笑加油... 11/12 21:26
593F:推 shaiking: 啦啦队都比蒋强 11/12 21:26
594F:推 seeyeu: 足球 二比二平手 11/12 21:26
595F:推 p123i456g: 认真说,除了阳,其它都应该派lm打者就好 11/12 21:26
596F:→ Puye: 对面换投都很果断 也有成效 我们的?????? 11/12 21:26
597F:推 caku0101: 看看别人教练团 11/12 21:26
598F:嘘 loveinmars: = =... 11/12 21:26
599F:推 peanut7516: 轰啊 11/12 21:26
600F:推 tallhand: 超级喜欢 11/12 21:26
601F:推 amethystboy: 这麽低也捡 11/12 21:26
602F:→ WenliYang: ................. 11/12 21:26
603F:推 straight0711: 有种吱队一人一支啊 11/12 21:26
604F:推 deathnight41: 猿文加油 轰轰轰 11/12 21:26
605F:推 luisak: 要马就HR 不然堆垒包最後也是残垒死 11/12 21:26
606F:推 j4418m: 轰呀!! 11/12 21:26
607F:推 cmw5566: 台湾足球目前在泰国客场踢 2:2平手中!!!!!!!!!!!!!!!!!! 11/12 21:26
608F:推 goury: 没穿圣衣啊 11/12 21:26
609F:嘘 if2: 这好球? 11/12 21:26
610F:→ Amphetame: 加国教头也蛮迷信的 11/12 21:26
611F:推 ycaa: 未看先猜 一球被入魂 11/12 21:26
612F:→ yaya: 无限期支持辣米糕… 11/12 21:26
613F:推 karen71014: 复连加油啊 11/12 21:26
614F:推 Augustus7689: 真准 11/12 21:26
615F:→ hank61910: K味浓 11/12 21:26
616F:→ HiHiCano: Hr 11/12 21:26
617F:推 AceCash: 轰吧轰吧 11/12 21:26
618F:嘘 x77: 又要虽败犹荣了吗? 11/12 21:26
619F:嘘 jimgene: 哪来控球不好... 11/12 21:26
620F:推 ivan609: 猿文加油啊!!!!!!!!!!! 11/12 21:26
621F:推 teyy26: 球僮好正 11/12 21:26
622F:推 elic2577: 以机率来讲,该安打了,加油啊 11/12 21:26
623F:→ cjeff: 这也好球 难打了..... 11/12 21:26
624F:推 SXRD: ...这样怎打 死裁判 11/12 21:26
625F:推 BDACK: 好球= =? 11/12 21:26
626F:→ bluesophia: 好准 11/12 21:26
627F:→ deathnight41: 猿文串连 11/12 21:26
628F:→ rabbit83035: 尻一下尻一下啦!! 11/12 21:26
629F:推 zorgYen: K味浓 11/12 21:26
630F:→ nightjar: 足球踢得好能踢亚洲盃 11/12 21:26
631F:→ pplilian: 不行哦!好歹留给位子给火哥 11/12 21:26
632F:→ shao729: 没选余德龙真的可惜 11/12 21:26
633F:推 eno03: 这麽甜没挥 11/12 21:26
634F:→ stockking: 吴复连比较强 11/12 21:26
635F:推 chen740530: 双杀打 11/12 21:27
636F:推 BlueMoonss: 主审...别闹了 11/12 21:27
637F:推 newhop520: 感觉刚那支比较好打 11/12 21:27
638F:推 anonym48: 酸民退散 酸中你很爽吗 11/12 21:27
639F:推 xuptjo: K味道浓 11/12 21:27
640F:推 nunu1102: 吴复连 11/12 21:27
641F:推 nonoyu: 猿文加油啊! 11/12 21:27
642F:→ ashin0226: 赢不了QQ 11/12 21:27
643F:推 eannana: DP蒋 11/12 21:27
644F:嘘 cucu1126: 可以不要一上来就投这麽准吗... 11/12 21:27
645F:推 asonge0000: 好险............ 11/12 21:27
646F:→ wan8088: ... 11/12 21:27
647F:→ if2: 阿给!!!! 11/12 21:27
648F:→ WenliYang: ....... 11/12 21:27
649F:→ ivan609: 还好没DP............= = 11/12 21:27
650F:推 trylin: 鸟滚 11/12 21:27
651F:→ deathnight41: 这打...... 11/12 21:27
652F:→ westlml: 差点........... 11/12 21:27
653F:→ stockking: 这哪招~~ 11/12 21:27
654F:推 ash9911911: 好险 11/12 21:27
655F:推 wangsan: 加油啊!! 11/12 21:27
656F:推 crusaders811: 这样也能打到 太神了吧 11/12 21:27
657F:→ bluesophia: 这也打 XD 11/12 21:27
658F:→ SXRD: 干嘛硬拉==差一点死2个 11/12 21:27
659F:→ Puye: ....... 11/12 21:27
660F:→ IRPT001: 太低了吧 11/12 21:27
661F:→ panjiongkai: 好险... 11/12 21:27
662F:→ hank61910: 感觉吃锅贴了 11/12 21:27
663F:推 IAmaMouse: 好险够软 11/12 21:27
664F:推 LauyaD: 这样也打的到 11/12 21:27
665F:推 zergtide: 靠大师兄了... 11/12 21:27
666F:→ pplilian: 浪费了 11/12 21:27
667F:嘘 bbo9527: 还我吴复连 11/12 21:27
668F:→ kouhei: 大酥胸!!!!!!!!!!!!!!!!!!!!!!!!!!!!!! 11/12 21:27
669F:→ yyhhzz: 差点dp 11/12 21:27
670F:推 wende520: 靠大师兄了 11/12 21:27
671F:→ loveinmars: 唉 酥胸拜托了 11/12 21:27
672F:→ jimmy885: 就乱打流的 11/12 21:27
673F:推 t29656477: 哪招... 11/12 21:27
674F:→ HiHiCano: 郭严文 没三振 就很棒了 11/12 21:27
675F:推 saint01: 这麽低还打 11/12 21:27
676F:推 daniel1344: 追打坏球 11/12 21:27
677F:推 nepenthes7: 干 差点do 11/12 21:27
678F:→ nunu1102: 好险好险 11/12 21:27
679F:推 nhtono: 一堆唱虽的真的是嘴巴痒 11/12 21:27
680F:推 lovedream927: hhhhhhhh 11/12 21:27
681F:推 furnaceh: 这球捞金鱼哦 11/12 21:27
682F:推 jess730612: 靠...那球贴地了吧 11/12 21:27
683F:推 asadman1523: 这样也打得道XD 猛猛 11/12 21:27
684F:推 REXA: 国内王准备中 11/12 21:27
685F:推 qqstory: 好险差点DP 11/12 21:27
686F:推 fireda: 打这麽低的球做啥 11/12 21:27
687F:推 tcc1210: 三小啦...... 11/12 21:27
688F:推 lee1023: 足球追平啦 11/12 21:27
689F:推 Kreen: 好险= = 11/12 21:27
690F:推 w921216: 这麽低... 11/12 21:27
691F:→ trylin: 师兄炸一支救救台湾好吗 ? 11/12 21:27
692F:推 lichun1228: 大师兄 靠你了!!!!! 不期待你下一棒 11/12 21:27
693F:推 dxc669: 加拿大守备真的好猛 11/12 21:27
694F:→ WenliYang: 差点又.... 11/12 21:27
695F:→ if2: 台湾希望 大酥胸! 11/12 21:27
696F:推 notea: 智胜靠你了 11/12 21:27
697F:推 cover543: 是打跑吧 不过没必要硬挥啊 11/12 21:27
698F:→ dtonesla: 差点DP 11/12 21:27
699F:推 a7811292002: 这麽低也在打... 11/12 21:27
700F:推 pf775101: 郭连这种球也能打得到也很佩服.... 11/12 21:27
701F:→ pig721: 不内穿5号吗 11/12 21:27
702F:→ lasterlife: ... 11/12 21:27
703F:推 Amilous: 会保送吗 11/12 21:27
704F:推 Qailsa: 卖闹 11/12 21:27
705F:推 OAzenO: 挖地瓜了还打到了XDDD 11/12 21:27
706F:推 oxx: 这也捞起来 11/12 21:27
707F:嘘 yabbie: 硬要打 11/12 21:27
708F:嘘 trouble04323: 科科 挖地瓜 肚子饿了 挖地瓜也在挥 11/12 21:27
709F:→ stockking: 他自己都笑了~ 11/12 21:27
710F:→ straight0711: 贴地还打 11/12 21:27
※ 编辑: theworld666 (118.160.25.234), 11/12/2015 21:29:07
711F:推 AutumnLi: 郭严文哈哈哈 11/12 21:27
712F:→ asonge0000: 大师兄!!!!!!!!!!!!!!!!!!!!!!!! 11/12 21:27
713F:→ cpc21478: 这样也打到的+1 11/12 21:27
714F:→ ivan609: ↗↗↗↗↗↗↗↗↗↗↗↗↗↗↗↗↗↗↗↗↗↗↗↗↗↗ 11/12 21:27
715F:→ SXRD: 靠大师兄双响炮了 11/12 21:27
716F:→ LauyaD: 再一只吧 11/12 21:27
717F:推 furret: 起码没双杀.. 11/12 21:27
718F:推 HeroFun: 鲨小 三振就算了还想害队友喔 11/12 21:27
719F:嘘 looks143895: 硬打 是因为裁判好球袋很松 11/12 21:27
720F:嘘 JiPuSai: ...................................... 11/12 21:27
721F:嘘 shulado: 这球也打 11/12 21:27
722F:→ kouhei: 大酥胸!!!!!!!!!!!!!!!!!!!!!!!! 11/12 21:27
723F:→ bunbunbun: 台湾队长!!! 11/12 21:27
724F:→ iamOsaka: 飙一只吧 11/12 21:27
725F:→ OsirisWar: ================微笑的一百种打击姿势=============== 11/12 21:27
726F:推 justting: 这也打的到。。 11/12 21:27
727F:→ yaya: ↗↗↗↗↗↗↗↗↗↗↗↗↗↗↗↗↗↗↗↗↗↗↗ 11/12 21:27
728F:推 joliecheer: 阿给拜托再来一发吧 11/12 21:27
729F:推 just8811: ↗↗↗↗↗↗↗↗↗↗↗↗↗↗↗↗↗↗↗↗↗↗↗↗↗ 11/12 21:27
730F:→ WenliYang: HR@!!!!! 11/12 21:27
731F:推 lchyde666: 跟第一局剧本好像 11/12 21:27
732F:→ aliceleaves: ................................ 11/12 21:27
733F:推 Befine: 今天全用全垒打得分好了!追平吧! 11/12 21:27
734F:推 alwaysstrong: 没有捞起来啊~ 11/12 21:27
735F:→ chen740530: 地瓜球也打 11/12 21:27
736F:→ kara21: 拜托 11/12 21:27
737F:推 wbesjdje: 大师兄再来一发 11/12 21:27
738F:→ Puye: 硬要碰 11/12 21:27
739F:推 dl92114: 还好没dp.... 11/12 21:27
740F:推 aleckleehaha: 这样也挥到XDDDDDDD 11/12 21:27
741F:→ freedom168: 大师兄 求你 11/12 21:27
742F:推 doig: 至少超级喜欢很认真跑,屁屁就慢跑 11/12 21:27
743F:推 tinalai: ↗↗↗↗↗↗↗↗↗↗↗↗↗↗↗↗↗↗↗↗↗↗↗↗↗ 11/12 21:27
744F:→ furnaceh: 酥兄 11/12 21:27
745F:→ just8811: ↗↗↗↗↗↗↗↗↗↗↗↗↗↗↗↗↗↗↗↗↗↗↗↗↗ 11/12 21:27
746F:推 hiro1221: 这球... 11/12 21:27
747F:推 bob4758: 加油拜托 11/12 21:27
748F:推 ya7814: 这样都能打… 11/12 21:27
749F:→ ivan609: ↗↗↗↗↗↗↗↗↗↗↗↗↗↗↗↗↗↗↗↗↗↗↗↗↗↗ 11/12 21:27
750F:→ nonoyu: 大师兄加油!!!!!! 11/12 21:27
751F:推 littlethree: MVP 靠你了 11/12 21:27
752F:→ maedchen: 有没有这麽爱捞? 11/12 21:27
753F:→ crusaders811: 不过我们变成跑得慢的在垒上 有点亏 11/12 21:27
754F:→ rabbit83035: 靠大师兄了!! 11/12 21:27
755F:→ tallhand: 打击技巧真好 11/12 21:27
756F:推 walk1987: 这样也捞的到... 11/12 21:27
757F:→ pplilian: 今天如果输掉战犯就是蒋屁跟郭泰源 11/12 21:27
758F:推 liyuoh: .....这 11/12 21:27
759F:推 justin510199: Hr 11/12 21:27
760F:推 jeff1008: 大师兄炸裂 楼下1000P 11/12 21:27
761F:推 comicgirl: 求求你大师兄 11/12 21:27
762F:→ asonge0000: 影响投手 11/12 21:27
763F:→ ivan609: ↗↗↗↗↗↗↗↗↗↗↗↗↗↗↗↗↗↗↗↗↗↗↗↗↗↗ 11/12 21:27
764F:→ bluesophia: 师兄加油 11/12 21:28
765F:推 luffymaxxd: ↗↗↗↗↗↗↗↗↗↗↗↗↗↗↗↗↗ 11/12 21:28
766F:推 xsexyx: 尻出去吧 11/12 21:28
767F:→ WenliYang: HR@!!!!! 11/12 21:28
768F:推 robertchun: ↗↗↗↗↗↗↗↗↗↗↗↗↗↗↗↗↗↗↗↗↗↗↗↗ 11/12 21:28
769F:→ loveinmars: 水 拐死他 11/12 21:28
770F:推 nht: 大师兄加油!!! 11/12 21:28
771F:→ blue1204: 志豪两次上垒都被微笑郭这样搞XDDD 11/12 21:28
772F:→ fireda: 原来阿给也会这招 11/12 21:28
773F:→ justting: 推 11/12 21:28
774F:→ SXRD: 刚那球要是朗神早安打了 11/12 21:28
775F:→ kouhei: 队长拜托了 11/12 21:28
776F:推 WINNIENO29: 真的很佩服他 11/12 21:28
777F:→ just8811: ↗↗↗↗↗↗↗↗↗↗↗↗↗↗↗↗↗↗↗↗↗↗↗↗↗ 11/12 21:28
778F:推 a8330028: 炸裂吧 11/12 21:28
779F:推 msekili: 球来就打差点死两个…… 11/12 21:28
780F:推 annie588670: 大师兄你可以的 11/12 21:28
781F:→ t29656477: ↗ ↗ ↗ ↗ ↗ ↗ ↗ ↗ ↗ ↗ ↗ 11/12 21:28
782F:嘘 perry27: 吴复连呢 11/12 21:28
783F:→ pplilian: 大师兄我跟你跪 11/12 21:28
784F:推 twinspenny: 来吧!大师兄 11/12 21:28
785F:推 applebird: 这球真的是球来就打的最高境界 11/12 21:28
786F:推 ccfred: 大师兄 11/12 21:28
787F:→ pig721: 拐气 11/12 21:28
788F:→ jimgene: 0.545的打击率 11/12 21:28
789F:→ panjiongkai: 捕手自己乱? 11/12 21:28
790F:→ AceCash: 轰啦轰啦 11/12 21:28
791F:→ Roy3567: 至少比PP好 11/12 21:28
792F:推 goodgril: 拜托你了 11/12 21:28
793F:推 minyminy1993: ↗↗ ↗ ↗ ↗ ↗ ↗ ↗ ↗ ↗ ↗ ↗ 11/12 21:28
794F:→ taimu: ... 11/12 21:28
795F:→ notea: ibb抓神全 11/12 21:28
796F:推 FirstClass: 破坏他节奏 11/12 21:28
797F:推 cissant: 你可以 11/12 21:28
798F:推 leokind: HR啊 11/12 21:28
799F:推 quite: 郭泰源 每次都战犯 11/12 21:28
800F:推 nightmare2: 大师兄也太有喜感 11/12 21:28
801F:→ Kreen: 大师兄拜托了! 11/12 21:28
802F:推 gamertwo: 大师兄继续让大家舒服吧! 11/12 21:28
803F:→ fox999: 5成45...强 11/12 21:28
804F:→ just8811: 超级喜欢 大酥兄 11/12 21:28
805F:→ wangsan: 大师兄加油啊 11/12 21:28
806F:推 team0801: 师兄扛出去啊!!! 11/12 21:28
807F:推 orangecookie: 这麽低也打的到 蒋可以看看这个跑垒速度吗 11/12 21:28
808F:推 diditomtom: 大师兄! 11/12 21:28
809F:推 a51062004: 大师兄炸裂 楼下500P 11/12 21:28
810F:推 Hiromitsu: 大师兄来一发!!!!!!!!!!!!! 11/12 21:28
811F:→ chen740530: 郭严文\的动态视力 11/12 21:28
812F:→ robertchun: 话说足球那边 台湾进球了 2:2 11/12 21:28
813F:→ stockking: 有感觉!!! 11/12 21:28
814F:→ yaya: 无限 支持 辣米糕 11/12 21:28
815F:推 OlenG: 这主审好强带那麽大 7局掉7分 投手真的该问斩 11/12 21:28
816F:→ tallhand: 双响泡 11/12 21:28
817F:推 dezem1111: 拐死他 11/12 21:28
818F:→ justting: 我要分数,快来 11/12 21:28
819F:推 crossdunk: 大师兄全垒打 发一万p 11/12 21:28
820F:推 itachi0609: 大师兄靠你了 11/12 21:28
821F:→ furnaceh: 酥兄来一发啦 11/12 21:28
822F:推 aljust12: ↖↖↖↖↖↖↖↖↖↖↖↖↖↖↖↖↖↖↖↖↖↖↖↖↖↖ 11/12 21:28
823F:推 maxian30201: 要敬远?! 11/12 21:28
824F:→ asadman1523: 是她是他 11/12 21:28
825F:→ pplilian: ↗ ↗ ↗ ↗ ↗ ↗ ↗ ↗ ↗ ↗ ↗ ↗ ↗ 11/12 21:28
826F:→ Befine: ↗↗↗↗↗↗↗↗↗↗↗↗↗↗↗↗↗↗↗↗↗↗↗↗↗↗ 11/12 21:28
827F:推 Rekcahpot: 来一炮吧!! 台湾队长!! 11/12 21:28
828F:推 seashel: ↗↗↗↗↗↑↑↑↑↑↑↑↑↑↖↖↖↖↖↖↖↖↖↖↖ 11/12 21:28
829F:推 hoseumou: 足球追平了 换你们棒球了 快呀 11/12 21:28
830F:推 riniu0728: 加油啊啊啊 11/12 21:28
831F:推 seeyeu: 来个追平炮 11/12 21:28
832F:→ xsexyx: 跪求尻 11/12 21:28
833F:推 redh: 需要一支 11/12 21:28
834F:推 lovelyhan: 只能靠林智胜了!!!!! 11/12 21:28
835F:推 loverxa: 大湿胸 11/12 21:28
836F:→ WenliYang: HR@!!!!! 11/12 21:28
837F:推 apple7146: 大师兄双响炮楼下200p 11/12 21:28
838F:→ yaya: ↗↗↗↗↗↗↗↗↗↗↗↗↗↗↗↗↗↗↗↗↗↗↗ 11/12 21:28
839F:→ wuklean: 乱打一通 11/12 21:28
840F:推 hanai0305: 轰啊 11/12 21:28
841F:→ zergtide: 0.545...2HR 11/12 21:28
842F:推 bluechilly: ↗↗↗↗↗↗↗↗↗↗↗↗↗↗↗↗↗↗↗↗↗↗↗↗ 11/12 21:28
843F:→ straight0711: 哀 锅贴再两局就送到了 11/12 21:28
844F:推 a1len: ↗↗↗↗↗↗↗↗↗↗↗↗↗↗↗↗↗↗↗↗↗↗↗↗↗↗↗ 11/12 21:28
845F:推 mebrother: 下一棒会换高吗? 11/12 21:28
846F:推 allenz78: 师兄 11/12 21:28
847F:推 aries5420: 2出局才开始反攻啊! 11/12 21:28
848F:推 jeyang: 酥胸!!!!拜托惹 11/12 21:28
849F:推 lml99: 靠你惹 11/12 21:28
850F:推 likeblue: 再来一发吧! 11/12 21:28
851F:→ pig721: 再一支就旅外了 11/12 21:28
852F:→ Amilous: 我加拿大队就全丢坏球 11/12 21:28
853F:→ rabbit83035: 台湾队长打啊! 11/12 21:28
854F:推 windjoe27: 师兄反攻要靠你了 11/12 21:28
855F:→ SXRD: 拜托尻啊 大师兄我跪你 11/12 21:28
856F:推 mood5168: 选基宏都比较好…… 11/12 21:28
857F:→ trylin: 阿这球没打 ... 11/12 21:28
858F:→ stockking: 好甜! 11/12 21:28
859F:推 gfg714kimo: 出去啊啊啊啊 11/12 21:28
860F:→ Befine: ↗↗↗↗↗↗↗↗↗↗↗↗↗↗↗↗↗↗↗↗↗↗↗↗↗↗ 11/12 21:28
861F:→ crossdunk: 大师兄全垒打楼下一万p 11/12 21:28
862F:推 ponytail0048: .545 超强 11/12 21:28
863F:推 love0120xxx: 这球可惜 11/12 21:28
864F:推 emilian1116: ... 11/12 21:28
865F:推 chihchin0112: 大师兄炸裂,我请楼下吃鸡排 11/12 21:28
866F:→ just8811: 会怕就好 11/12 21:28
867F:→ ivan609: 这球没打 太可惜0..................... 11/12 21:28
868F:→ jimgene: 真的好准 11/12 21:28
869F:推 LewisRong: 炸一个吧 11/12 21:28
870F:→ pf775101: 超可惜 11/12 21:28
871F:→ wende520: 没打有点可惜 11/12 21:28
872F:→ HiHiCano: K味浓 11/12 21:28
873F:→ riniu0728: ↗↗↗↗↗↗↗↗↗↗↗↗↗↗↗↗↗↗↗↗↗↗↗ 11/12 21:28
874F:推 mico409: 主审好球带宽??? 我们看同场吗 11/12 21:28
875F:推 DJY: 会怕喔 11/12 21:28
876F:推 Augustus7689: 没采 11/12 21:28
877F:推 hank61910: 错过了,K味浓 11/12 21:28
878F:→ OsirisWar: 甜蜜蜜 11/12 21:28
879F:推 apjj: 大师兄加油啦 11/12 21:28
880F:→ jimmy885: 大师兄自己都笑出来了 11/12 21:28
881F:→ chen740530: 红中不打喔 11/12 21:28
882F:→ ccfred: 这任投手好像是最强的... 11/12 21:28
883F:推 cjeff: 这投手真难打 11/12 21:28
884F:→ Rekcahpot: 拜托来一炮!!!! 11/12 21:28
885F:→ Puye: 尻一发 或2B以上 拜托 11/12 21:28
886F:→ oxx: ↗↗↗↗↗↗↗↗↗↗↗↗↗↗↗↗↗↗↗↗↗↗↗↗↗↗↗↗ 11/12 21:28
887F:推 godmanntut: 放了这球,可惜 11/12 21:28
888F:→ Befine: ↗↗↗↗↗↗↗↗↗↗↗↗↗↗↗↗↗↗↗↗↗↗↗↗↗↗ 11/12 21:28
889F:推 tfe60: 这球.. 11/12 21:28
890F:推 dynastyraide: ↗ ↗ ↗ ↗ ↗ ↗ ↗ ↗ ↗ ↗ ↗ ↗ 11/12 21:28
891F:→ just8811: ↗↗↗↗↗↗↗↗↗↗↗↗↗↗↗↗↗↗↗↗↗↗↗↗↗ 11/12 21:28
892F:→ WenliYang: HR@!!!!! 11/12 21:28
893F:→ bluesophia: 加油加油 11/12 21:28
894F:→ tarjan33167: ====================================hr楼下5566p 11/12 21:28
895F:推 milk7054: 大酥胸 11/12 21:29
896F:推 azt911231: .545 太神了吧 11/12 21:29
897F:嘘 Aurthelan: 拜托下次可以不要选爪吗废爆 11/12 21:29
898F:→ pplilian: 两分就好拜托~~~~~~ 11/12 21:29
899F:推 ubuntuable: 加油啊 11/12 21:29
900F:→ Amilous: KKK 11/12 21:29
901F:→ asonge0000: K 11/12 21:29
902F:推 everybody513: 大酥胸Hrhrhrhrhr 11/12 21:29
903F:→ trylin: KKQQQ 11/12 21:29
904F:→ panjiongkai: ..... 11/12 21:29
905F:推 karenh118: 足球加油! 11/12 21:29
906F:推 Roystu: gg 11/12 21:29
907F:→ Augustus7689: 乾 11/12 21:29
908F:→ emilian1116: .. 11/12 21:29
909F:→ westlml: KKKKKKKKKKKKKKKKKKK 11/12 21:29
910F:推 xuptjo: K 11/12 21:29
911F:→ yaya: ……… 11/12 21:29
912F:→ just8811: ↗↗↗↗↗↗↗↗↗↗↗↗↗↗↗↗↗↗↗↗↗↗↗↗↗ 11/12 21:29
913F:→ f12345678900: .................. 11/12 21:29
914F:→ everybody513: r 11/12 21:29
915F:→ ivan609: 142 空振'...........= = 11/12 21:29
916F:推 if2: 哭.. 11/12 21:29
917F:→ LauyaD: k 11/12 21:29
918F:推 daily07: 哭哭 11/12 21:29
919F:→ cjeff: 难打 11/12 21:29
920F:→ HiHiCano: KKKKKKKKKKKKK 11/12 21:29
921F:推 eddie1212: ~~~~~~~ 11/12 21:29
922F:→ zergtide: KKK 11/12 21:29
923F:推 newspikachu: 两个红中没打 11/12 21:29
924F:推 super5000: K 11/12 21:29
925F:→ ccfred: 悲剧了 11/12 21:29
926F:→ Lizardon: 怎麽布IBB 抓高钢钢 11/12 21:29
927F:推 tetsu2008: .. 11/12 21:29
928F:→ HeroFun: 乱挥 11/12 21:29
929F:→ apple7146: QQ 11/12 21:29
930F:推 w223357: K 11/12 21:29
931F:嘘 SilentBob: ....... 11/12 21:29
932F:推 ZHENJI: ... 11/12 21:29
933F:推 smart1989: K.... 11/12 21:29
934F:推 calvinh: ... 11/12 21:29
935F:→ straight0711: 哀 锅贴再两局就送到了 11/12 21:29
936F:→ freedom168: K 11/12 21:29
937F:推 IRPT001: 凶 11/12 21:29
938F:→ gamertwo: 我难过 11/12 21:29
939F:→ WenliYang: sucks!!!!!!!!!!!!!!!!!!!!!!!!! 11/12 21:29
940F:推 rappig: 气都没了 11/12 21:29
941F:→ cpc21478: 啥小 这麽快 11/12 21:29
942F:→ chen740530: 空气击沉 11/12 21:29
943F:推 nepenthes7: GG 11/12 21:29
944F:推 lovebuddy: QQ 11/12 21:29
945F:→ trylin: 无双还是要CD ........ 11/12 21:29
946F:→ allenz78: 可惜 11/12 21:29
947F:→ jimgene: 正中直球 11/12 21:29
948F:→ Kreen: 惨了。 11/12 21:29
949F:推 terfd: gg 11/12 21:29
950F:→ stockking: 气势都弱了 11/12 21:29
951F:嘘 amazon10810: e04 11/12 21:29
952F:→ azt911231: 平均打两次就1支安打 11/12 21:29
953F:推 knml: 完全没气了… 11/12 21:29
954F:推 wayne971: K 11/12 21:29
955F:→ HiHiCano: 锅贴M6 11/12 21:29
956F:推 yyhhzz: ……要吃锅贴了 11/12 21:29
957F:嘘 srobg666: 因为有你的嘘声为我带来成功 分享感动~~ 11/12 21:29
958F:推 VMX: 会变型而已 11/12 21:29
959F:→ tetsu2008: 中心打线... 11/12 21:29
960F:→ bunbunbun: 加拿大换投换真好 11/12 21:29
961F:推 Colantoni: 哀... 11/12 21:29
962F:嘘 chadcoco1222: 蒋真的很废 11/12 21:29
963F:→ liyuoh: 该不该关电视QQ 11/12 21:29
964F:→ crusaders811: 这支蛮威的 11/12 21:29
965F:推 MirageAngel: ˙˙˙˙˙˙˙˙˙˙˙˙˙˙˙˙˙˙˙˙˙˙˙˙~ 11/12 21:29
966F:推 newhop520: 这个真的强 11/12 21:29
967F:推 karen71014: 我闻到游龙的味道了……… 11/12 21:29
968F:→ Rekcahpot: 这投手控球好猛!! 就是上一局满垒残 气势都没了 11/12 21:29
969F:推 yniori: 气没了 11/12 21:29
970F:推 aa800129315: 加油加油!!!中华队!! 11/12 21:29
971F:→ joliecheer: 要写个惨字 QAQ 11/12 21:29
972F:推 dxc669: 两个红中没打就猜错球阿 这也要酸 靠北 11/12 21:29
973F:推 potentio: 集气! 11/12 21:29
974F:→ kara21: 满垒没得分 气都没了 11/12 21:29
975F:推 furret: 对手换投很果决 11/12 21:29
976F:推 dl92114: Nooooooo....orz 11/12 21:29
977F:推 Mondesi2006: 主播哀嚎 11/12 21:29
978F:→ ionchips: …… 11/12 21:29
979F:推 ACGfun: 可G 11/12 21:29
980F:→ love0120xxx: 竟然会塞内角速球= = 11/12 21:29
981F:推 spaniyavic: 气散了… 11/12 21:29
982F:推 Crazyfire: 锅贴开始热锅了.................. 11/12 21:29
983F:推 meegan: ↗↗↗↗↗↗↗↗↗↗↗↗↗↗↗↗↗↗↗↗↗↗↗ 11/12 21:29
984F:推 eno03: 好RP 上来不闪躲就是好球连发 11/12 21:29
985F:→ yaya: 战犯蒋 11/12 21:29
986F:→ OsirisWar: 现在打电话来得及嘛,锅贴还有剩吗 11/12 21:29
987F:推 daniel1344: 前一颗放掉真的是捶心肝 11/12 21:29
988F:→ SXRD: 唉 棒次到底谁那会排 排那麽烂 11/12 21:29
989F:→ ash9911911: 糟糕 已经闻到锅贴味了 11/12 21:29
990F:嘘 STTKK: GG 蒋要黑到底了....... 11/12 21:29
991F:推 jim04072001: 锅贴该煎了 11/12 21:29
992F:推 gameloser: 下一局又是国内王 11/12 21:29
993F:→ eddie1212: 气势很重要 11/12 21:29
994F:推 aliceleaves: ................................ 11/12 21:29
995F:推 vulurn: 锅贴的味道都飘来我家了 11/12 21:29
996F:推 impactwar: 士气崩盘 就跟对荷兰8局一样 11/12 21:29
997F:推 lovedesigh: 这位也是高阶1A吗 11/12 21:29
998F:推 tj474474: 恭喜lamigo这局获得三个出局数 11/12 21:29
999F:推 ckbo0424: 气势没了 11/12 21:29
1000F:推 kukuso: 不是气 是人家投手真的高一个等级 11/12 21:29
1001F:→ notea: 要打给八方云集点餐了 11/12 21:29
1002F:嘘 thid5335: 11/12 21:29
1003F:→ westlml: 正中直球挥空~可惜了~逮到大概就出去了 11/12 21:29
1004F:→ xsexyx: 广告来嘘ㄧ下蒋 11/12 21:29
1005F:推 ShockG: 对面有危机就换了 不死撑的 11/12 21:29
1006F:推 vvvi: 熟悉的剧本 11/12 21:29
1007F:嘘 scatology: ..............蒋 11/12 21:29
1008F:推 TSbb: GG 11/12 21:29
1009F:推 sprites520: 惨 11/12 21:29
1010F:推 shooooooboom: 锅贴真的煎一半了 加油好吗 11/12 21:29
1011F:推 osakakobe: 上一局的关系,没气了 11/12 21:29
1012F:推 dm03: 开强振可惜~ 11/12 21:29
1013F:推 hiro1221: 这两球都还蛮中间的耶 11/12 21:29
1014F:推 sbreezer: 被屁屁气都DP掉了 11/12 21:29
1015F:推 flyinwinds: 可惜了~~ 11/12 21:29
1016F:→ guitarjong: 逃猿好棒棒~ 11/12 21:29
1017F:推 tingover: 刚好饿了 11/12 21:29
1018F:推 ohmygodha: 今天三个打HR的下个打席都被K= =" 11/12 21:29
1019F:→ jimmy885: 这棒过去,看来锅贴已经可以吃了 11/12 21:29
1020F:推 kairiyu: 继续骂蒋屁 11/12 21:29
1021F:推 abc0922002: 可惜 11/12 21:29
1022F:推 burglur: 下局攻击很不期待耶 11/12 21:29
1023F:推 wangsan: 只要不再失分我相信还是有机会的! 11/12 21:29
1024F:嘘 cissant: 完全是上一局 唉 11/12 21:29
1025F:推 cychine: .................................. 11/12 21:29
1026F:→ f59952: 棒球比赛 就是机率的串联 11/12 21:29
1027F:→ w223357: 熟悉的味道 11/12 21:29
1028F:→ pplilian: 超级讨厌蒋屁屁 11/12 21:29
1029F:→ SilentBob: 锅贴店关了 11/12 21:29
1030F:推 Harute: 如果输了蒋真的战犯无误 11/12 21:29
1031F:推 NTJL: 结果今天打HR的这两局都被K QQ 11/12 21:29
1032F:推 jkl852: 都ㄐㄧㄤˇ 11/12 21:29
1033F:→ kukuso: 这位今年在蓝鸟3A 11/12 21:29
1034F:嘘 AFTER25: 锅贴可以下了! 11/12 21:29
1035F:→ smart1989: 买锅贴罗 11/12 21:29
1036F:推 Raymond0710: 投手 强 舒服 11/12 21:29
1037F:推 CombatSniper: Sony xperia 这种跳水机就不要广告了好吗 11/12 21:30
1038F:推 AutumnLi: 今天这场我觉得最烂的就是棒次!!!!! 11/12 21:30
1039F:推 macrose: 锅贴店老板表示订单激增 11/12 21:30
1040F:→ schmi: 哀 又要看到蒋屁上来守备...哪时可以不要看到它阿 11/12 21:30
1041F:推 GinHan: 打这样不错了啦...3HR 呜呜 11/12 21:30
1042F:嘘 chineseb: 陈冠宇毁了这一场 11/12 21:30
1043F:嘘 nick2142002: 足球又被超前了3-2 11/12 21:30
1044F:推 helba: 垒上没人,说不定对下一棒来说是好的… 11/12 21:30
1045F:推 lereage: 足球又掉分了QQQQ 11/12 21:30
1046F:推 devilcavalry: 完蛋了 等等是林益全和...高志纲= = 11/12 21:30
1047F:→ ccfred: 这投手1A? 11/12 21:30
1048F:→ WenliYang: .................完全被蒋灭火 11/12 21:30
1049F:→ bluesophia: 酸个屁,替球员加油会死喔 11/12 21:30
1050F:→ ashin0226: 谢谢中华对 11/12 21:30
1051F:→ ivan609: 第二个好球没攻击太可惜 下一颗反而太急就挥空了 11/12 21:30
1052F:→ Murloc: 刚刚满垒没得分真的超伤 11/12 21:30
1053F:推 cloud2110: 2k 11/12 21:30
1054F:推 bbuc: 那个挥空後的笑容是不是不太妥当 11/12 21:30
1055F:推 wailman: 闷啊。郭总有习得拐气技能吗? 11/12 21:30
1056F:推 walk1987: 等等要买八方的还是四海的 11/12 21:30
1057F:→ straight0711: 蒋守备多掉3分 打撃少进1~2分 11/12 21:30
1058F:推 ncb125: 剩两局了 11/12 21:30
1059F:推 chiamin116: 大师兄动作定格真可爱XDDD 11/12 21:30
1060F:推 WOWO5566: 哀 越来越不妙了 11/12 21:30
1061F:→ sprites520: 强阵XD 11/12 21:30
1062F:推 chinya0612: 最近两个人全垒打後下一打席都三振 11/12 21:30
1063F:→ max52001: 锅贴两块 阿哈哈 11/12 21:30
1064F:推 anonym48: 这投手控球就这麽准啊 在那边酸 11/12 21:30
1065F:推 iamOsaka: 没啥好苛责了 问题是刚刚满垒没追分 11/12 21:30
1066F:→ Puye: 唉 这局还好 刚刚满垒都没得分了 11/12 21:30
1067F:→ ARTORIA: 九点半 可以订锅贴了 11/12 21:30
1068F:嘘 st721022: Ptt 首嘘给蒋 11/12 21:30
1069F:嘘 superklim: 精液的红气球真的很烦 11/12 21:30
1070F:→ ukalm: 下一局准备被打爆 11/12 21:30
1071F:推 AceCash: 对手换投很果决,我们换投很果冻... 11/12 21:30
1072F:推 iankevin: 不过事实就是我们投手比对面烂啊 守备也是 11/12 21:30
1073F:推 mathematics3: 等等换E全一棒击沉 11/12 21:30
1074F:→ banbantone: 我X你娘 蒋智贤 11/12 21:30
1075F:推 isotropic: 锅贴专卖店十点准时开张,谢谢光临 11/12 21:30
1076F:推 chense: 中华队拿第四名下礼拜一对大谷好了啦 直接当冠军赛打 11/12 21:30
1077F:推 ericpitt: 大师兄很猛了啦 谁每次都打得出安打的? 11/12 21:30
1078F:推 a84885640: 宵夜时间 11/12 21:30
1079F:推 odt: 熟悉的麦香 最对味 11/12 21:30
1080F:推 itachi0609: 满垒那次真的超伤 11/12 21:30
1081F:→ lovedesigh: 老板说目前订锅贴要等到十点了 11/12 21:30
1082F:推 ceeer: 要吃锅贴了@@ 11/12 21:30
1083F:推 beer71997199: 打击很好,投手压不住... 11/12 21:30
1084F:推 ddtabcd: 唯~四海游龙吗?我要订锅贴外送~ 11/12 21:30
1085F:推 d90493: 唉 那个满垒大局没得分太伤了 11/12 21:30
1086F:推 BURSTshock: 建议下次锅贴店找中华队代言 11/12 21:30
1087F:推 coolpixs: 蒋智贤你 11/12 21:30
1088F:嘘 oh123oh: 还不是满垒无人出局没得分 蒋烂XXXXXXXXXXXXXXXXXXXXXXXX 11/12 21:30
1089F:推 MicroGG: 足球那边3:2了..... 11/12 21:30
1090F:推 cockpupu: 差在总教练! 11/12 21:30
1091F:推 Befine: 为啥要选蒋智贤?他有很强吗? 11/12 21:30
1092F:推 milk7054: 锅贴油正香 11/12 21:30
1093F:→ OalexO: 今日战犯: 陈冠宇 蒋智贤 11/12 21:30
1094F:嘘 maxian30201: 超赌烂六下 啊啊啊啊啊啊啊啊啊啊 不爽啦 11/12 21:30
1095F:→ xsexyx: 你蒋到底想不想赢阿! 11/12 21:30
1096F:→ YuChEnChAnG: 为什麽觉得别人换投都比郭好 11/12 21:30
1097F:推 rover10: 隔壁被进啦 11/12 21:30
1098F:→ kara21: 干 现在还在气怎办 11/12 21:30
1099F:→ OsirisWar: 还有火哥,别放弃阿各位,679要来了 11/12 21:30
1100F:嘘 tallhand: 投手稳定,打击就软 11/12 21:30
1101F:推 upadhyaya: 陈冠宇 连干掉中华队两场 11/12 21:30
1102F:→ d90493: 整天吃锅贴 11/12 21:30
1103F:→ peter5214: 替蒋加油的确可能会死......会心死 11/12 21:30
1104F:嘘 terry66: 差在总教练 完全不应变 11/12 21:30
1105F:推 shulado: 重点是分数冻结 牛棚放火打几分都没救 11/12 21:30
1106F:→ HiHiCano: 还在崩溃陈冠宇? 你有听过屁屁接祖国的善液吗? 11/12 21:30
1107F:推 bemily32: 请顾虑圣人的心情 尽量不要嘘 11/12 21:30
1108F:推 LemonCheng: 看蒋屁的打击不如看周董! 11/12 21:30
1109F:→ eizost: 这样算 蒋还有一次上来的机会..深黑还是浅黑就看这一次了 11/12 21:30
1110F:嘘 justting: 气势被dp拐走,生气 11/12 21:30
1111F:→ ericpitt: 当你只剩全垒打能得分时 就曝露了打线串连的问题了 11/12 21:30
1112F:→ TaiwanJunior: 冷冻锅贴可以拿出来退冰了........................ 11/12 21:30
1113F:→ macrose: 四海游龙门口涌现排队人潮 11/12 21:30
1114F:推 phsu02: 陈冠宇丢太多分了啦 干 11/12 21:30
1115F:→ karen71014: 四海犹荣 已经在热身了 11/12 21:30
1116F:推 dpchao775: 为什麽要选倪福德很强吗? 11/12 21:30
1117F:→ tj474474: 王伯融那球要是接到的话现在早就平手了 慢跑融 11/12 21:30
1118F:推 san70168: ============足球都踢平了 棒球加油好吗??????? 11/12 21:30
1119F:→ jimgene: 战犯明明就总教练 11/12 21:30
1120F:嘘 perhdball: 刚刚以为自己在黑特区要被桶了啦乾,首桶献给奖 11/12 21:30
1121F:→ Mondesi2006: 神全先上垒 高点点 11/12 21:30
1122F:嘘 snap007: 不怪蒋,只怪教练让你上场 11/12 21:30
1123F:推 fredchan1992: 不会啊 我们乡长也丢很好 11/12 21:30
1124F:→ Alan1597: 8可以换代打阿 11/12 21:30
1125F:推 maedchen: 今天如果输了日本还有机会吗? 11/12 21:30
1126F:推 Greatgenius: 我觉得真的打不到就认了 11/12 21:30
1127F:推 ilovewang: 换罗? 11/12 21:30
1128F:推 abxtpml56: 加油逆转!!!! 11/12 21:31
1129F:推 repast: 熟悉的锅贴味.... 11/12 21:31
1130F:推 Mirow: 为什麽中华队每个看起来都嘻皮笑脸 ? 11/12 21:31
1131F:嘘 inVINCEable: 输了啦!!兄弟屁屁贤真是... 11/12 21:31
1132F:推 liusim: 加拿大这捕手有点猛啊 11/12 21:31
1133F:嘘 fg008kimo: 都蒋啦 只是蒋p 11/12 21:31
1134F:嘘 Louismax: 每次都要大师兄来止血 是中华队只有他在打吗 11/12 21:31
1135F:→ Puye: 对面各种换投救火 11/12 21:31
1136F:嘘 antonny: 惨了蒋智贤还几棒就要上来了....除非快换掉他吧 11/12 21:31
1137F:→ Amphetame: 这左手连六好球 11/12 21:31
1138F:→ phsu02: 陈冠宇丢太多分了啦 干 11/12 21:31
1139F:→ Rekcahpot: 如果今天输了 後面还有希望晋级? 11/12 21:31
1140F:推 Saza: 开始落赛 11/12 21:31
1141F:推 Destery: MLB 2.82era 现役,只能说很强 11/12 21:31
1142F:嘘 bill0205: 教练很有问题 11/12 21:31
1143F:推 kew0487: 还在气+1 11/12 21:31
1144F:→ nightmare2: 超越E全的 材,你蒋 11/12 21:31
1145F:推 auyayaya: 你前两次都打不好 第三次还上来 就是教练团脑袋的问题 11/12 21:31
1146F:推 hosighle: 大家要相信神全会安!!!!!!待会垒上已经没人了 11/12 21:31
1147F:→ assin: 熟悉的锅贴 最对味 11/12 21:31
1148F:→ max52001: 本来打很好 就不太可能会一直长打 每次都有断层 没办法 11/12 21:31
1149F:推 yishonlin: 真的是教练影响太大 11/12 21:31
1150F:嘘 Jeff911: guitarjong 这只爪是想引战是吗 11/12 21:31
1151F:嘘 han050393: 中华队输给陈冠宇跟蒋智贤两个 11/12 21:31
1152F:→ anonym48: 乡民键盘教练来一下 看换换换能不能把整队都换掉 11/12 21:31
1153F:→ a9564208: 别怕 国内王这局垒上没人 11/12 21:31
1154F:推 carter31211: 换LO了 11/12 21:31
1155F:嘘 edouard09: 首嘘也太扯,登入门槛1000没嘘过真厉害@@ 11/12 21:31
1156F:推 waverson: 真心觉得米糕整队来打 应该三连胜了 11/12 21:31
1157F:嘘 johnwalk7: 有兄弟屁蒋扯後腿 难赢 11/12 21:31
1158F:推 ddkkz2003: 足球也丢球了... 11/12 21:31
1159F:→ HiHiCano: 还在崩溃陈冠宇? 你有听过屁屁接祖国的善液吗? 还是你 11/12 21:31
1160F:推 whoknows1022: 看起来是罗 11/12 21:31
1161F:嘘 yisiang92: 徐乃麟国真的很塞 11/12 21:31
1162F:→ straight0711: 还给他打 非得当主坦就对了 11/12 21:31
1163F:→ k0783154: 油"冠"车失三分.... 11/12 21:31
1164F:推 julialin: 再见安打这个剧本我可以 11/12 21:31
1165F:→ Greatgenius: 跟陈冠宇没关系吧 11/12 21:31
1166F:→ chiamin116: 开始战精神了吗 11/12 21:31
1167F:→ tj474474: 倪福德就是除了郑凯文以外中职最强先发土投 有问题吗 11/12 21:31
1168F:→ blackspace: 蒋智贤 战犯了 黑到发金 11/12 21:31
1169F:推 loster: 换lo 11/12 21:31
1170F:嘘 w223357: 熟悉的味道 11/12 21:31
1171F:→ lovedesigh: 莫忘蒋用屁屁接球 11/12 21:31
1172F:推 asonge0000: 今天的LO 是 大联盟的LO吗 11/12 21:31
1173F:推 jess730612: 高强度比赛得5分很不得了了 投手这层台湾太缺了 11/12 21:31
1174F:嘘 SXRD: 教练团根本没作用 打线排成这样 换投又换超烂 11/12 21:31
1175F:嘘 EatMe37: 该骂的是教练吧 那种状况不换阳是几时才换 11/12 21:31
1176F:→ dpchao775: 有义大犯规倪难赢 11/12 21:32
1177F:→ inVINCEable: 怪王伯融!!你是有扛全垒打逆 11/12 21:32
1178F:→ a20351: 陈冠宇:感谢蒋智贤让我解脱 11/12 21:32
1179F:推 yanki826: 姐姐溢正没选 可棤 11/12 21:32
1180F:推 bbuc: 今天的表现很好了啦....别苛责 11/12 21:32
1181F:推 lohateve: 中华白跟中华蓝的胜率差多少? 11/12 21:32
1182F:→ SXRD: 教练是要多久时间才会把打线 排的顺ㄧ点 11/12 21:32
1183F:推 tomatosoup: 拜托练一下高飞牺牲打.............................. 11/12 21:32
1184F:→ dpchao775: 感觉不出来~谢谢~小学生犯规? 11/12 21:32
1185F:嘘 xsexyx: 蒋我不想再看到惹! 11/12 21:32
1186F:推 leo1208: 一样是速球对决 11/12 21:32
1187F:推 getter5566: 千错万错都是酸民错啦,蒋智贤打超帮的耶^_^ 11/12 21:33
1188F:→ julialin: 教练团没什麽战策 11/12 21:33
1189F:嘘 lovedesigh: 油冠车这梗根本不好笑 用不腻喔 11/12 21:33
1190F:推 hc90799: 想吓死谁 11/12 21:33
1191F:推 kouhei: 阿打哩 11/12 21:33
1192F:→ straight0711: 好消息是古巴这届还蛮弱的 11/12 21:33
1193F:推 ying0502: 台湾似乎不会打高飞牺牲,没看过,不过守备我比较在意 11/12 21:34
1194F:嘘 terfd: 关电视罗 11/12 21:34
1195F:推 bobo1016: 唉 11/12 21:34
1196F:推 wzch: 好远.................................... 11/12 21:34
1197F:推 xsexyx: 老板!外带10个锅贴 11/12 21:34
1198F:推 a8330028: 放火 11/12 21:35
1199F:→ ARTORIA: 屁屁接球 加今天dp 这辈子别想洗白了 11/12 21:35
1200F:推 ryrp: LO的实力就是这样 11/12 21:35
1201F:嘘 loveinmars: 不意外 11/12 21:35
1202F:→ asdfghjklasd: 1HR 11/12 21:35
1203F:→ bobo1016: 满垒没得分超干 妈的 11/12 21:35
1204F:推 WGfriend: 虽败犹荣 11/12 21:35
1205F:推 circlebear: 喔不.... 11/12 21:35
1206F:推 Sinchiest: 请问为啥可以满垒不用得分 11/12 21:36
1207F:嘘 judavida: 姓蒋在台湾都是千古罪人啦 11/12 21:36
1208F:→ stocken: 连被打两球 11/12 21:37
1209F:推 morgan13: 蒋渭水可不是罪人 11/12 21:37
1210F:→ stocken: 改标题啦 8:5了 11/12 21:37
1211F:→ kikichou: 火球仁, 意思是说会放火的...人 11/12 21:38
1212F:→ stocken: 中华队赢我吞煎饺 11/12 21:38
1213F:→ kikichou: 教练团超烂 11/12 21:39
1214F:→ kikichou: 教练团只会照表换人,不会看投的状况来决定换不换 11/12 21:39
1215F:推 wangsan: 敌人就在休息室 11/12 21:39
1216F:嘘 PoloHuang: 干 11/12 21:40
1217F:推 victor327: boyo你… 11/12 21:42
1218F:推 judavida: 死屁蒋害我在爪版被水桶,现在一肚子火,干,不会在这也 11/12 21:42
1219F:推 joya07tine24: 9比5... 11/12 21:42
1220F:→ e20288: 差超过3分,连锅贴都没有了 11/12 21:42
1221F:→ judavida: 要因为他被桶 11/12 21:42
1222F:推 yungwena: 你骂脏话就会被桶 11/12 21:44
1223F:推 patrick57: 阿基师超拚 11/12 21:55
1224F:推 david3928: 吼.... 11/12 22:03







like.gif 您可能会有兴趣的文章
icon.png[问题/行为] 猫晚上进房间会不会有憋尿问题
icon.pngRe: [闲聊] 选了错误的女孩成为魔法少女 XDDDDDDDDDD
icon.png[正妹] 瑞典 一张
icon.png[心得] EMS高领长版毛衣.墨小楼MC1002
icon.png[分享] 丹龙隔热纸GE55+33+22
icon.png[问题] 清洗洗衣机
icon.png[寻物] 窗台下的空间
icon.png[闲聊] 双极の女神1 木魔爵
icon.png[售车] 新竹 1997 march 1297cc 白色 四门
icon.png[讨论] 能从照片感受到摄影者心情吗
icon.png[狂贺] 贺贺贺贺 贺!岛村卯月!总选举NO.1
icon.png[难过] 羡慕白皮肤的女生
icon.png阅读文章
icon.png[黑特]
icon.png[问题] SBK S1安装於安全帽位置
icon.png[分享] 旧woo100绝版开箱!!
icon.pngRe: [无言] 关於小包卫生纸
icon.png[开箱] E5-2683V3 RX480Strix 快睿C1 简单测试
icon.png[心得] 苍の海贼龙 地狱 执行者16PT
icon.png[售车] 1999年Virage iO 1.8EXi
icon.png[心得] 挑战33 LV10 狮子座pt solo
icon.png[闲聊] 手把手教你不被桶之新手主购教学
icon.png[分享] Civic Type R 量产版官方照无预警流出
icon.png[售车] Golf 4 2.0 银色 自排
icon.png[出售] Graco提篮汽座(有底座)2000元诚可议
icon.png[问题] 请问补牙材质掉了还能再补吗?(台中半年内
icon.png[问题] 44th 单曲 生写竟然都给重复的啊啊!
icon.png[心得] 华南红卡/icash 核卡
icon.png[问题] 拔牙矫正这样正常吗
icon.png[赠送] 老莫高业 初业 102年版
icon.png[情报] 三大行动支付 本季掀战火
icon.png[宝宝] 博客来Amos水蜡笔5/1特价五折
icon.pngRe: [心得] 新鲜人一些面试分享
icon.png[心得] 苍の海贼龙 地狱 麒麟25PT
icon.pngRe: [闲聊] (君の名は。雷慎入) 君名二创漫画翻译
icon.pngRe: [闲聊] OGN中场影片:失踪人口局 (英文字幕)
icon.png[问题] 台湾大哥大4G讯号差
icon.png[出售] [全国]全新千寻侘草LED灯, 水草

请输入看板名称,例如:WOW站内搜寻

TOP